| time (UTC) | temp F | wind direction | speed MPH | gust MPH | rain 1hr in | rain 24hr in | rain mn in | humidity % | barometer mb |
| 20260904202802 | 88 | 52 | 0.0 | 3.0 | 0.00 | 0.00 | 0.00 | 79 | 1012.5 |
| 20260904202606 | 88 | 58 | 0.0 | 3.0 | 0.00 | 0.00 | 0.00 | 76 | 1012.4 |
| 20260904202458 | 88 | 55 | 0.0 | 3.0 | 0.00 | 0.00 | 0.00 | 77 | 1012.3 |
| 20260904202203 | 88 | 48 | 0.0 | 3.0 | 0.00 | 0.00 | 0.00 | 78 | 1012.4 |
| 20260904202103 | 88 | 48 | 0.0 | 4.0 | 0.00 | 0.00 | 0.00 | 79 | 1012.4 |
| 20260904202002 | 87 | 49 | 0.0 | 4.0 | 0.00 | 0.00 | 0.00 | 78 | 1012.3 |
| 20260904201804 | 87 | 49 | 0.0 | 4.0 | 0.00 | 0.00 | 0.00 | 78 | 1012.3 |
| 20260904201605 | 87 | 69 | 0.0 | 4.0 | 0.00 | 0.00 | 0.00 | 79 | 1012.3 |
| 20260904201502 | 87 | 65 | 0.0 | 4.0 | 0.00 | 0.00 | 0.00 | 77 | 1012.3 |
| 20260904201215 | 87 | 55 | 0.0 | 4.0 | 0.00 | 0.00 | 0.00 | 77 | 1012.3 |
| 20260904201106 | 88 | 37 | 0.0 | 4.0 | 0.00 | 0.00 | 0.00 | 78 | 1012.3 |
| 20260904201102 | 88 | 196 | 0.0 | 4.0 | 0.00 | 0.00 | 0.00 | 79 | 1012.4 |
| 20260904200802 | 87 | 27 | 0.0 | 4.0 | 0.00 | 0.00 | 0.00 | 77 | 1012.3 |
| 20260904200619 | 87 | 27 | 0.0 | 4.0 | 0.00 | 0.00 | 0.00 | 78 | 1012.4 |
| 20260904200418 | 87 | 83 | 0.0 | 4.0 | 0.00 | 0.00 | 0.00 | 79 | 1012.3 |
| 20260904200207 | 87 | 0 | 0.0 | 4.0 | 0.00 | 0.00 | 0.00 | 79 | 1012.2 |
| 20260904200153 | 87 | 0 | 0.0 | 3.0 | 0.00 | 0.00 | 0.00 | 78 | 1012.2 |
| 20260904200115 | 87 | 34 | 0.0 | 4.0 | 0.00 | 0.00 | 0.00 | 78 | 1012.2 |
| 20260904195802 | 87 | 18 | 0.0 | 3.0 | 0.00 | 0.00 | 0.00 | 79 | 1012.3 |
| 20260904195708 | 87 | 0 | 0.0 | 4.0 | 0.00 | 0.00 | 0.00 | 78 | 1012.3 |
| 20260904195604 | 87 | 0 | 0.0 | 4.0 | 0.00 | 0.00 | 0.00 | 78 | 1012.3 |
| 20260904195508 | 87 | 21 | 0.0 | 6.0 | 0.00 | 0.00 | 0.00 | 77 | 1012.3 |
| 20260904195447 | 87 | 0 | 0.0 | 6.0 | 0.00 | 0.00 | 0.00 | 79 | 1012.2 |
| 20260904195419 | 87 | 23 | 0.0 | 6.0 | 0.00 | 0.00 | 0.00 | 78 | 1012.3 |
| 20260904195003 | 87 | 35 | 0.0 | 6.0 | 0.00 | 0.00 | 0.00 | 81 | 1012.3 |
| 20260904194803 | 87 | 34 | 0.0 | 6.0 | 0.00 | 0.00 | 0.00 | 80 | 1012.4 |
| 20260904194707 | 87 | 42 | 0.0 | 6.0 | 0.00 | 0.00 | 0.00 | 78 | 1012.3 |
| 20260904194604 | 87 | 42 | 0.0 | 6.0 | 0.00 | 0.00 | 0.00 | 78 | 1012.3 |
| 20260904194504 | 86 | 34 | 0.0 | 6.0 | 0.00 | 0.00 | 0.00 | 81 | 1012.4 |
| 20260904194442 | 87 | 48 | 0.0 | 6.0 | 0.00 | 0.00 | 0.00 | 79 | 1012.4 |
| 20260904194410 | 86 | 31 | 0.0 | 6.0 | 0.00 | 0.00 | 0.00 | 81 | 1012.3 |
| 20260904194005 | 86 | 34 | 0.0 | 6.0 | 0.00 | 0.00 | 0.00 | 81 | 1012.4 |
| 20260904193803 | 86 | 144 | 0.0 | 5.0 | 0.00 | 0.00 | 0.00 | 79 | 1012.4 |
| 20260904193611 | 87 | 66 | 0.0 | 5.0 | 0.00 | 0.00 | 0.00 | 77 | 1012.4 |
| 20260904193546 | 87 | 24 | 0.0 | 4.0 | 0.00 | 0.00 | 0.00 | 80 | 1012.4 |
| 20260904193534 | 87 | 68 | 0.0 | 5.0 | 0.00 | 0.00 | 0.00 | 80 | 1012.4 |
| 20260904193412 | 87 | 23 | 0.0 | 4.0 | 0.00 | 0.00 | 0.00 | 79 | 1012.4 |
| 20260904193407 | 87 | 3 | 0.0 | 3.0 | 0.00 | 0.00 | 0.00 | 80 | 1012.4 |
| 20260904192952 | 87 | 23 | 0.0 | 4.0 | 0.00 | 0.00 | 0.00 | 79 | 1012.5 |
| 20260904192754 | 87 | 23 | 0.0 | 4.0 | 0.00 | 0.00 | 0.00 | 80 | 1012.4 |
| 20260904192531 | 87 | 16 | 0.0 | 4.0 | 0.00 | 0.00 | 0.00 | 80 | 1012.4 |
| 20260904192351 | 87 | 16 | 0.0 | 4.0 | 0.00 | 0.00 | 0.00 | 80 | 1012.3 |
| 20260904192151 | 87 | 20 | 0.0 | 5.0 | 0.00 | 0.00 | 0.00 | 80 | 1012.3 |
| 20260904192143 | 86 | 75 | 0.0 | 5.0 | 0.00 | 0.00 | 0.00 | 81 | 1012.3 |
| 20260904192031 | 86 | 21 | 0.0 | 5.0 | 0.00 | 0.00 | 0.00 | 81 | 1012.4 |
| 20260904191850 | 86 | 79 | 0.0 | 5.0 | 0.00 | 0.00 | 0.00 | 80 | 1012.3 |
| 20260904191532 | 86 | 337 | 0.0 | 5.0 | 0.00 | 0.00 | 0.00 | 80 | 1012.4 |
| 20260904191339 | 86 | 337 | 0.0 | 5.0 | 0.00 | 0.00 | 0.00 | 80 | 1012.4 |
| 20260904191140 | 86 | 24 | 0.0 | 4.0 | 0.00 | 0.00 | 0.00 | 80 | 1012.4 |
| 20260904191029 | 86 | 154 | 0.0 | 4.0 | 0.00 | 0.00 | 0.00 | 80 | 1012.5 |
| 20260904190937 | 86 | 45 | 0.0 | 4.0 | 0.00 | 0.00 | 0.00 | 81 | 1012.3 |
| 20260904190741 | 86 | 45 | 0.0 | 5.0 | 0.00 | 0.00 | 0.00 | 78 | 1012.4 |
| 20260904190540 | 87 | 0 | 0.0 | 5.0 | 0.00 | 0.00 | 0.00 | 80 | 1012.4 |
| 20260904190338 | 87 | 353 | 0.0 | 5.0 | 0.00 | 0.00 | 0.00 | 81 | 1012.4 |
| 20260904190136 | 87 | 31 | 0.0 | 5.0 | 0.00 | 0.00 | 0.00 | 80 | 1012.3 |
| 20260904190111 | 87 | 18 | 0.0 | 5.0 | 0.00 | 0.00 | 0.00 | 77 | 1012.4 |
| 20260904190029 | 87 | 31 | 0.0 | 5.0 | 0.00 | 0.00 | 0.00 | 78 | 1012.4 |
| 20260904185740 | 88 | 188 | 0.0 | 4.0 | 0.00 | 0.00 | 0.00 | 80 | 1012.4 |
| 20260904185658 | 88 | 8 | 0.0 | 4.0 | 0.00 | 0.00 | 0.00 | 82 | 1012.4 |
| 20260904185529 | 88 | 8 | 0.0 | 4.0 | 0.00 | 0.00 | 0.00 | 80 | 1012.4 |
| 20260904185336 | 88 | 10 | 0.0 | 4.0 | 0.00 | 0.00 | 0.00 | 79 | 1012.3 |
| 20260904185206 | 87 | 21 | 0.0 | 4.0 | 0.00 | 0.00 | 0.00 | 82 | 1012.4 |
| 20260904185043 | 87 | 21 | 0.0 | 4.0 | 0.00 | 0.00 | 0.00 | 82 | 1012.4 |
| 20260904184931 | 87 | 21 | 0.0 | 4.0 | 0.00 | 0.00 | 0.00 | 82 | 1012.2 |
| 20260904184730 | 0 | 23 | 0.0 | 0.0 | 0.00 | 0.00 | 0.00 | 1012.3 | |
| 20260904184704 | 0 | 0.0 | 0.0 | 0.00 | 0.00 | 0.00 | 1012.3 | ||
| 20260904184602 | 0 | 0.0 | 0.0 | 0.00 | 0.00 | 0.00 | 1012.3 | ||
| 20260904184307 | 0 | 0.0 | 0.0 | 0.00 | 0.00 | 0.00 | |||
| 20260904184207 | 0 | 0.0 | 0.0 | 0.00 | 0.00 | 0.00 | |||
| 20260904183909 | 0 | 0.0 | 0.0 | 0.00 | 0.00 | 0.00 | |||
| 20260904183726 | 0 | 0.0 | 0.0 | 0.00 | 0.00 | 0.00 | |||
| 20260904183722 | 0 | 0.0 | 0.0 | 0.00 | 0.00 | 0.00 | |||
| 20260904183650 | 0 | 0.0 | 0.0 | 0.00 | 0.00 | 0.00 | |||
| 20260904183259 | 0 | 0.0 | 0.0 | 0.00 | 0.00 | 0.00 | 1012.4 | ||
| 20260904183234 | 0 | 0.0 | 0.0 | 0.00 | 0.00 | 0.00 | 1012.4 | ||
| 20260904183206 | 0 | 0.0 | 0.0 | 0.00 | 0.00 | 0.00 | 1012.4 | ||
| 20260904182836 | 0 | 0.0 | 0.0 | 0.00 | 0.00 | 0.00 | 1012.4 | ||
| 20260904182711 | 87 | 27 | 0.0 | 2.0 | 0.00 | 0.00 | 0.00 | 81 | 1012.4 |
| 20260904182519 | 87 | 27 | 0.0 | 5.0 | 0.00 | 0.00 | 0.00 | 81 | 1012.4 |
| 20260904182411 | 87 | 27 | 0.0 | 5.0 | 0.00 | 0.00 | 0.00 | 81 | 1012.4 |
| 20260904182159 | 87 | 27 | 0.0 | 5.0 | 0.00 | 0.00 | 0.00 | 81 | 1012.3 |
| 20260904182142 | 87 | 27 | 0.0 | 5.0 | 0.00 | 0.00 | 0.00 | 81 | 1012.4 |
| 20260904182112 | 87 | 27 | 0.0 | 5.0 | 0.00 | 0.00 | 0.00 | 81 | 1012.3 |
| 20260904181742 | 87 | 27 | 0.0 | 5.0 | 0.00 | 0.00 | 0.00 | 81 | 1012.3 |
| 20260904181542 | 87 | 27 | 0.0 | 5.0 | 0.00 | 0.00 | 0.00 | 81 | 1012.4 |
| 20260904181344 | 87 | 28 | 0.0 | 3.0 | 0.00 | 0.00 | 0.00 | 81 | 1012.4 |
| 20260904181204 | 87 | 41 | 0.0 | 3.0 | 0.00 | 0.00 | 0.00 | 80 | 1012.3 |
| 20260904181143 | 87 | 18 | 0.0 | 3.0 | 0.00 | 0.00 | 0.00 | 81 | 1012.2 |
| 20260904181120 | 87 | 41 | 0.0 | 3.0 | 0.00 | 0.01 | 0.00 | 80 | 1012.2 |
| 20260904180742 | 87 | 42 | 0.0 | 3.0 | 0.00 | 0.01 | 0.00 | 80 | 1012.2 |
| 20260904180642 | 0 | 25 | 0.0 | 0.0 | 0.00 | 0.00 | 0.00 | 1012.3 | |
| 20260904180337 | 0 | 0.0 | 0.0 | 0.00 | 0.00 | 0.00 | 1012.2 | ||
| 20260904180043 | 0 | 0.0 | 0.0 | 0.00 | 0.00 | 0.00 | |||
| 20260904180024 | 0 | 0.0 | 0.0 | 0.00 | 0.00 | 0.00 | |||
| 20260904175607 | 0 | 0.0 | 0.0 | 0.00 | 0.00 | 0.00 | |||
| 20260904175510 | 0 | 0.0 | 0.0 | 0.00 | 0.00 | 0.00 | |||
| 20260904175306 | 0 | 0.0 | 0.0 | 0.00 | 0.00 | 0.00 | |||
| 20260904175206 | 0 | 0.0 | 0.0 | 0.00 | 0.00 | 0.00 | |||
| 20260904175108 | 0 | 0.0 | 0.0 | 0.00 | 0.00 | 0.00 | |||
| 20260904174736 | 0 | 0.0 | 0.0 | 0.00 | 0.00 | 0.00 | 1012.1 | ||
| 20260904174535 | 0 | 0.0 | 0.0 | 0.00 | 0.00 | 0.00 | 1012.1 | ||
| 20260904174437 | 0 | 0.0 | 0.0 | 0.00 | 0.00 | 0.00 | 1012.1 | ||
| 20260904174233 | 0 | 0.0 | 0.0 | 0.00 | 0.00 | 0.00 | 1012.1 | ||
| 20260904174134 | 0 | 0.0 | 0.0 | 0.00 | 0.00 | 0.00 | 1012.1 | ||
| 20260904173933 | 0 | 0.0 | 0.0 | 0.00 | 0.00 | 0.00 | 1012.1 | ||
| 20260904173735 | 0 | 0.0 | 0.0 | 0.00 | 0.00 | 0.00 | 1012.1 | ||
| 20260904173439 | 0 | 0.0 | 0.0 | 0.00 | 0.31 | 0.00 | |||
| 20260904173334 | 0 | 0.0 | 0.0 | 0.00 | 0.31 | 0.00 | |||
| 20260904173039 | 0 | 0.0 | 0.0 | 0.00 | 0.31 | 0.00 | |||
| 20260904172942 | 0 | 0.0 | 0.0 | 0.00 | 0.31 | 0.00 | |||
| 20260904172934 | 0 | 0.0 | 0.0 | 0.00 | 0.31 | 0.00 | |||
| 20260904172607 | 0 | 0.0 | 0.0 | 0.00 | 0.31 | 0.00 | |||
| 20260904172407 | 0 | 0.0 | 0.0 | 0.00 | 0.31 | 0.00 | |||
| 20260904172209 | 0 | 0.0 | 0.0 | 0.00 | 0.31 | 0.00 | 1011.8 | ||
| 20260904171940 | 0 | 0.0 | 0.0 | 0.00 | 0.31 | 0.00 | 1011.8 | ||
| 20260904171917 | 89 | 18 | 0.0 | 2.0 | 0.00 | 0.31 | 0.00 | 77 | 1011.8 |
| 20260904171834 | 89 | 18 | 0.0 | 2.0 | 0.00 | 0.31 | 0.00 | 77 | 1011.8 |
| 20260904171535 | 89 | 18 | 0.0 | 4.0 | 0.00 | 0.31 | 0.00 | 77 | 1011.8 |
| 20260904171435 | 89 | 18 | 0.0 | 4.0 | 0.00 | 0.31 | 0.00 | 77 | 1011.8 |
| 20260904171416 | 89 | 18 | 0.0 | 4.0 | 0.00 | 0.31 | 0.00 | 77 | 1011.8 |
| 20260904171147 | 89 | 7 | 0.0 | 4.0 | 0.00 | 0.31 | 0.00 | 77 | 1011.7 |
| 20260904171141 | 89 | 18 | 0.0 | 4.0 | 0.00 | 0.31 | 0.00 | 77 | 1011.8 |
| 20260904171124 | 89 | 18 | 0.0 | 4.0 | 0.00 | 0.31 | 0.00 | 77 | 1011.7 |
| 20260904170712 | 89 | 41 | 0.0 | 4.0 | 0.00 | 0.31 | 0.00 | 77 | 1011.6 |
| 20260904170514 | 89 | 38 | 0.0 | 3.0 | 0.00 | 0.31 | 0.00 | 77 | 1011.7 |
| 20260904170408 | 89 | 39 | 0.0 | 3.0 | 0.00 | 0.31 | 0.00 | 76 | 1011.8 |
| 20260904170312 | 89 | 39 | 0.0 | 4.0 | 0.00 | 0.31 | 0.00 | 76 | 1011.8 |
| 20260904170107 | 89 | 25 | 0.0 | 5.0 | 0.00 | 0.31 | 0.00 | 76 | 1011.8 |
| 20260904170044 | 89 | 327 | 0.0 | 5.0 | 0.00 | 0.31 | 0.00 | 77 | 1011.8 |
| 20260904165842 | 89 | 327 | 0.0 | 5.0 | 0.00 | 0.31 | 0.00 | 77 | 1011.8 |
| 20260904165639 | 89 | 324 | 0.0 | 5.0 | 0.00 | 0.31 | 0.00 | 76 | 1011.7 |
| 20260904165435 | 89 | 39 | 0.0 | 5.0 | 0.00 | 0.32 | 0.00 | 75 | 1011.7 |
| 20260904165339 | 89 | 55 | 0.0 | 5.0 | 0.00 | 0.32 | 0.00 | 75 | 1011.7 |
| 20260904165209 | 89 | 42 | 0.0 | 3.0 | 0.00 | 0.32 | 0.00 | 80 | 1011.7 |
| 20260904165010 | 89 | 179 | 0.0 | 3.0 | 0.00 | 0.33 | 0.00 | 80 | 1011.7 |
| 20260904164808 | 89 | 182 | 0.0 | 3.0 | 0.00 | 0.33 | 0.00 | 78 | 1011.6 |
| 20260904164620 | 88 | 179 | 0.0 | 3.0 | 0.00 | 0.33 | 0.00 | 79 | 1011.8 |
| 20260904164608 | 89 | 179 | 0.0 | 3.0 | 0.00 | 0.33 | 0.00 | 79 | 1011.8 |
| 20260904164315 | 88 | 178 | 0.0 | 3.0 | 0.00 | 0.33 | 0.00 | 78 | 1011.7 |
| 20260904164212 | 88 | 180 | 0.0 | 3.0 | 0.00 | 0.33 | 0.00 | 79 | 1011.7 |
| 20260904164007 | 88 | 147 | 0.0 | 2.0 | 0.00 | 0.34 | 0.00 | 79 | 1011.7 |
| 20260904163813 | 88 | 152 | 0.0 | 3.0 | 0.00 | 0.38 | 0.00 | 79 | 1011.7 |
| 20260904163807 | 88 | 151 | 0.0 | 3.0 | 0.00 | 0.38 | 0.00 | 79 | 1011.8 |
| 20260904163609 | 88 | 148 | 0.0 | 3.0 | 0.00 | 0.39 | 0.00 | 79 | 1011.7 |
| 20260904163402 | 88 | 148 | 0.0 | 3.0 | 0.00 | 0.40 | 0.00 | 79 | 1011.7 |
| 20260904163317 | 88 | 113 | 0.0 | 3.0 | 0.00 | 0.41 | 0.00 | 79 | 1011.7 |
| 20260904163208 | 88 | 164 | 0.0 | 3.0 | 0.00 | 0.44 | 0.00 | 80 | 1011.6 |
| 20260904163203 | 88 | 113 | 0.0 | 3.0 | 0.00 | 0.42 | 0.00 | 81 | 1011.7 |
| 20260904162805 | 88 | 147 | 0.0 | 2.0 | 0.00 | 0.45 | 0.00 | 81 | 1011.6 |
| 20260904162603 | 87 | 145 | 0.0 | 2.0 | 0.00 | 0.46 | 0.00 | 81 | 1011.6 |
| 20260904162406 | 87 | 145 | 0.0 | 2.0 | 0.00 | 0.47 | 0.00 | 81 | 1011.5 |
| 20260904162311 | 87 | 355 | 0.0 | 2.0 | 0.00 | 0.47 | 0.00 | 80 | 1011.5 |
| 20260904162207 | 0 | 354 | 0.0 | 0.0 | 0.00 | 0.48 | 0.00 | 1011.6 | |
| 20260904162006 | 0 | 42 | 0.0 | 0.0 | 0.00 | 0.48 | 0.00 | 1011.5 | |
| 20260904161909 | 0 | 0.0 | 0.0 | 0.00 | 0.00 | 0.00 | 1011.5 | ||
| 20260904161808 | 0 | 0.0 | 0.0 | 0.00 | 0.00 | 0.00 | 1011.5 | ||
| 20260904161528 | 0 | 0.0 | 0.0 | 0.00 | 0.00 | 0.00 | |||
| 20260904161231 | 0 | 0.0 | 0.0 | 0.00 | 0.00 | 0.00 | |||
| 20260904161031 | 0 | 0.0 | 0.0 | 0.00 | 0.00 | 0.00 | |||
| 20260904160832 | 0 | 0.0 | 0.0 | 0.00 | 0.00 | 0.00 | |||
| 20260904160703 | 0 | 0.0 | 0.0 | 0.00 | 0.00 | 0.00 | |||
| 20260904160634 | 0 | 0.0 | 0.0 | 0.00 | 0.00 | 0.00 | |||
| 20260904160434 | 0 | 0.0 | 0.0 | 0.00 | 0.00 | 0.00 | |||
| 20260904160342 | 0 | 0.0 | 0.0 | 0.00 | 0.00 | 0.00 | 1011.5 | ||
| 20260904160202 | 0 | 0.0 | 0.0 | 0.00 | 0.00 | 0.00 | 1011.5 | ||
| 20260904160133 | 0 | 0.0 | 0.0 | 0.00 | 0.00 | 0.00 | 1011.5 | ||
| 20260904155807 | 0 | 0.0 | 0.0 | 0.00 | 0.00 | 0.00 | 1011.5 | ||
| 20260904155709 | 0 | 0.0 | 0.0 | 0.00 | 0.00 | 0.00 | 1011.5 | ||
| 20260904155606 | 0 | 0.0 | 0.0 | 0.00 | 0.00 | 0.00 | 1011.5 | ||
| 20260904155402 | 0 | 0.0 | 0.0 | 0.00 | 0.00 | 0.00 | 1011.4 | ||
| 20260904155205 | 0 | 0.0 | 0.0 | 0.00 | 0.00 | 0.00 | 1011.4 | ||
| 20260904154836 | 0 | 0.0 | 0.0 | 0.00 | 0.48 | 0.00 | |||
| 20260904154734 | 0 | 0.0 | 0.0 | 0.00 | 0.48 | 0.00 | |||
| 20260904154534 | 0 | 0.0 | 0.0 | 0.00 | 0.48 | 0.00 | |||
| 20260904154436 | 0 | 0.0 | 0.0 | 0.00 | 0.48 | 0.00 | |||
| 20260904154255 | 0 | 0.0 | 0.0 | 0.00 | 0.48 | 0.00 | |||
| 20260904154235 | 0 | 0.0 | 0.0 | 0.00 | 0.48 | 0.00 | |||
| 20260904154209 | 0 | 0.0 | 0.0 | 0.00 | 0.48 | 0.00 | |||
| 20260904153807 | 0 | 0.0 | 0.0 | 0.00 | 0.48 | 0.00 | 1011.2 | ||
| 20260904153607 | 0 | 0.0 | 0.0 | 0.00 | 0.48 | 0.00 | 1011.2 | ||
| 20260904153407 | 0 | 0.0 | 0.0 | 0.00 | 0.48 | 0.00 | 1011.2 | ||
| 20260904153236 | 85 | 216 | 0.0 | 2.0 | 0.00 | 0.48 | 0.00 | 85 | 1011.2 |
| 20260904153206 | 85 | 216 | 0.0 | 2.0 | 0.00 | 0.48 | 0.00 | 85 | 1011.2 |
| 20260904153158 | 85 | 216 | 0.0 | 0.0 | 0.00 | 0.48 | 0.00 | 85 | 1011.2 |
| 20260904152718 | 85 | 216 | 0.0 | 2.0 | 0.00 | 0.48 | 0.00 | 85 | 1011.1 |
| 20260904152616 | 85 | 216 | 0.0 | 2.0 | 0.00 | 0.48 | 0.00 | 85 | 1011.1 |
| 20260904152433 | 85 | 216 | 0.0 | 2.0 | 0.00 | 0.48 | 0.00 | 85 | 1011.2 |
| 20260904152314 | 85 | 216 | 0.0 | 2.0 | 0.00 | 0.48 | 0.00 | 85 | 1011.1 |
| 20260904152222 | 85 | 216 | 0.0 | 2.0 | 0.00 | 0.48 | 0.00 | 84 | 1011.0 |
| 20260904152204 | 85 | 214 | 0.0 | 2.0 | 0.00 | 0.48 | 0.00 | 84 | 1011.0 |
| 20260904152129 | 85 | 216 | 0.0 | 2.0 | 0.00 | 0.48 | 0.00 | 84 | 1011.0 |
| 20260904151715 | 85 | 214 | 0.0 | 2.0 | 0.00 | 0.48 | 0.00 | 86 | 1010.9 |
| 20260904151620 | 84 | 214 | 0.0 | 2.0 | 0.00 | 0.48 | 0.00 | 85 | 1010.9 |
| 20260904151424 | 84 | 214 | 0.0 | 2.0 | 0.00 | 0.48 | 0.00 | 85 | 1010.9 |
| 20260904151322 | 83 | 214 | 0.0 | 2.0 | 0.00 | 0.48 | 0.00 | 86 | 1010.9 |
| 20260904151317 | 83 | 214 | 0.0 | 2.0 | 0.00 | 0.48 | 0.00 | 86 | 1010.9 |
| 20260904151225 | 83 | 214 | 0.0 | 2.0 | 0.00 | 0.48 | 0.00 | 86 | 1010.9 |
| 20260904151144 | 83 | 214 | 0.0 | 2.0 | 0.00 | 0.48 | 0.00 | 86 | 1010.9 |
| 20260904150719 | 83 | 214 | 0.0 | 2.0 | 0.00 | 0.48 | 0.00 | 86 | 1010.9 |
| 20260904150516 | 83 | 217 | 0.0 | 3.0 | 0.00 | 0.48 | 0.00 | 86 | 1010.8 |
| 20260904150433 | 83 | 214 | 0.0 | 3.0 | 0.00 | 0.48 | 0.00 | 86 | 1010.9 |
| 20260904150319 | 83 | 214 | 0.0 | 3.0 | 0.00 | 0.48 | 0.00 | 86 | 1010.9 |
| 20260904150315 | 83 | 214 | 0.0 | 3.0 | 0.00 | 0.48 | 0.00 | 86 | 1010.9 |
| 20260904145931 | 83 | 214 | 0.0 | 3.0 | 0.00 | 0.48 | 0.00 | 86 | 1010.9 |
| 20260904145714 | 83 | 216 | 0.0 | 3.0 | 0.00 | 0.48 | 0.00 | 86 | 1011.0 |
| 20260904145520 | 83 | 214 | 0.0 | 3.0 | 0.00 | 0.48 | 0.00 | 86 | 1011.0 |
| 20260904145416 | 83 | 214 | 0.0 | 3.0 | 0.00 | 0.48 | 0.00 | 86 | 1010.9 |
| 20260904145318 | 83 | 214 | 0.0 | 3.0 | 0.00 | 0.48 | 0.00 | 86 | 1010.9 |
| 20260904145118 | 83 | 214 | 0.0 | 3.0 | 0.00 | 0.48 | 0.00 | 86 | 1011.0 |
| 20260904144935 | 82 | 214 | 0.0 | 2.0 | 0.00 | 0.48 | 0.00 | 88 | 1010.9 |
| 20260904144918 | 83 | 214 | 0.0 | 3.0 | 0.00 | 0.48 | 0.00 | 86 | 1011.0 |
| 20260904144515 | 82 | 213 | 0.0 | 1.0 | 0.00 | 0.48 | 0.00 | 88 | 1010.9 |
| 20260904144416 | 82 | 213 | 0.0 | 0.0 | 0.00 | 0.48 | 0.00 | 88 | 1010.9 |
| 20260904144319 | 82 | 213 | 0.0 | 0.0 | 0.00 | 0.48 | 0.00 | 88 | 1011.0 |
| 20260904144117 | 82 | 213 | 0.0 | 1.0 | 0.00 | 0.48 | 0.00 | 89 | 1011.0 |
| 20260904143918 | 81 | 216 | 0.0 | 1.0 | 0.00 | 0.48 | 0.00 | 89 | 1010.9 |
| 20260904143716 | 81 | 216 | 0.0 | 1.0 | 0.00 | 0.48 | 0.00 | 89 | 1011.0 |
| 20260904143555 | 81 | 216 | 0.0 | 3.0 | 0.00 | 0.48 | 0.00 | 89 | 1011.0 |
| 20260904143515 | 81 | 214 | 0.0 | 1.0 | 0.00 | 0.48 | 0.00 | 89 | 1010.9 |
| 20260904143438 | 81 | 214 | 0.0 | 1.0 | 0.00 | 0.48 | 0.00 | 89 | 1011.0 |
| 20260904143116 | 80 | 216 | 0.0 | 4.0 | 0.00 | 0.48 | 0.00 | 90 | 1010.9 |
| 20260904142931 | 80 | 214 | 0.0 | 4.0 | 0.00 | 0.48 | 0.00 | 90 | 1011.0 |
| 20260904142721 | 80 | 216 | 0.0 | 4.0 | 0.00 | 0.48 | 0.00 | 90 | 1010.9 |
| 20260904142517 | 80 | 216 | 0.0 | 4.0 | 0.00 | 0.48 | 0.00 | 90 | 1011.0 |
| 20260904142425 | 80 | 216 | 0.0 | 4.0 | 0.00 | 0.48 | 0.00 | 90 | 1011.0 |
| 20260904142318 | 80 | 216 | 0.0 | 4.0 | 0.00 | 0.48 | 0.00 | 90 | 1011.0 |
| 20260904142200 | 80 | 214 | 0.0 | 3.0 | 0.00 | 0.48 | 0.00 | 90 | 1010.8 |
| 20260904142152 | 80 | 214 | 0.0 | 3.0 | 0.00 | 0.48 | 0.00 | 90 | 1011.0 |
| 20260904142128 | 80 | 214 | 0.0 | 3.0 | 0.00 | 0.48 | 0.00 | 90 | 1010.9 |
| 20260904141718 | 80 | 216 | 0.0 | 1.0 | 0.00 | 0.48 | 0.00 | 92 | 1011.0 |
| 20260904141517 | 80 | 213 | 0.0 | 1.0 | 0.00 | 0.48 | 0.00 | 92 | 1011.0 |
| 20260904141412 | 80 | 213 | 0.0 | 1.0 | 0.00 | 0.48 | 0.00 | 92 | 1010.8 |
| 20260904141321 | 0 | 0.0 | 0.0 | 0.00 | 0.00 | 0.00 | 1010.9 | ||
| 20260904141308 | 80 | 214 | 0.0 | 1.0 | 0.00 | 0.48 | 0.00 | 92 | 1010.9 |
| 20260904141145 | 0 | 0.0 | 0.0 | 0.00 | 0.00 | 0.00 | 1010.9 | ||
| 20260904141137 | 0 | 214 | 0.0 | 0.0 | 0.00 | 0.48 | 0.00 | 1010.8 | |
| 20260904140604 | 0 | 0.0 | 0.0 | 0.00 | 0.00 | 0.00 | |||
| 20260904140402 | 0 | 0.0 | 0.0 | 0.00 | 0.00 | 0.00 | |||
| 20260904140306 | 0 | 0.0 | 0.0 | 0.00 | 0.00 | 0.00 | |||
| 20260904140207 | 0 | 0.0 | 0.0 | 0.00 | 0.00 | 0.00 | |||
| 20260904140041 | 0 | 0.0 | 0.0 | 0.00 | 0.00 | 0.00 | |||
| 20260904140019 | 0 | 0.0 | 0.0 | 0.00 | 0.00 | 0.00 | |||
| 20260904135639 | 0 | 0.0 | 0.0 | 0.00 | 0.00 | 0.00 | |||
| 20260904135435 | 0 | 0.0 | 0.0 | 0.00 | 0.00 | 0.00 | 1011.0 | ||
| 20260904135305 | 0 | 0.0 | 0.0 | 0.00 | 0.00 | 0.00 | 1011.0 | ||
| 20260904135135 | 0 | 0.0 | 0.0 | 0.00 | 0.00 | 0.00 | 1011.0 | ||
| 20260904134934 | 0 | 0.0 | 0.0 | 0.00 | 0.00 | 0.00 | 1011.0 | ||
| 20260904134802 | 0 | 0.0 | 0.0 | 0.00 | 0.00 | 0.00 | 1011.0 | ||
| 20260904134707 | 0 | 0.0 | 0.0 | 0.00 | 0.00 | 0.00 | 1011.0 | ||
| 20260904134505 | 0 | 0.0 | 0.0 | 0.00 | 0.00 | 0.00 | 1010.9 | ||
| 20260904134308 | 0 | 0.0 | 0.0 | 0.00 | 0.00 | 0.00 | 1010.8 | ||
| 20260904134134 | 0 | 0.0 | 0.0 | 0.00 | 0.48 | 0.00 | |||
| 20260904133836 | 0 | 0.0 | 0.0 | 0.00 | 0.48 | 0.00 | |||
| 20260904133735 | 0 | 0.0 | 0.0 | 0.00 | 0.48 | 0.00 | |||
| 20260904133636 | 0 | 0.0 | 0.0 | 0.00 | 0.48 | 0.00 | |||
| 20260904133434 | 0 | 0.0 | 0.0 | 0.00 | 0.48 | 0.00 | |||
| 20260904133211 | 0 | 0.0 | 0.0 | 0.00 | 0.48 | 0.00 | |||
| 20260904133106 | 0 | 0.0 | 0.0 | 0.00 | 0.48 | 0.00 | 1010.7 | ||
| 20260904132905 | 0 | 0.0 | 0.0 | 0.00 | 0.48 | 0.00 | 1010.7 | ||
| 20260904132730 | 0 | 0.0 | 0.0 | 0.00 | 0.48 | 0.00 | 1010.7 | ||
| 20260904132535 | 0 | 0.0 | 0.0 | 0.00 | 0.48 | 0.00 | 1010.7 | ||
| 20260904132336 | 75 | 175 | 0.0 | 0.0 | 0.00 | 0.48 | 0.00 | 98 | 1010.7 |
| 20260904132204 | 75 | 175 | 0.0 | 0.0 | 0.00 | 0.48 | 0.00 | 98 | 1010.7 |
| 20260904132137 | 75 | 175 | 0.0 | 1.0 | 0.00 | 0.48 | 0.00 | 98 | 1010.7 |
| 20260904131923 | 75 | 175 | 0.0 | 1.0 | 0.00 | 0.48 | 0.00 | 98 | 1010.8 |
| 20260904131723 | 75 | 175 | 0.0 | 1.0 | 0.00 | 0.48 | 0.00 | 98 | 1010.8 |
| 20260904131705 | 75 | 175 | 0.0 | 1.0 | 0.00 | 0.48 | 0.00 | 98 | 1010.9 |
| 20260904131622 | 75 | 175 | 0.0 | 1.0 | 0.00 | 0.48 | 0.00 | 98 | 1010.9 |
| 20260904131422 | 75 | 175 | 0.0 | 1.0 | 0.00 | 0.48 | 0.00 | 98 | 1010.8 |
| 20260904131203 | 75 | 178 | 0.0 | 1.0 | 0.00 | 0.48 | 0.00 | 98 | 1010.8 |
| 20260904131123 | 75 | 141 | 0.0 | 0.0 | 0.00 | 0.48 | 0.00 | 98 | 1010.8 |
| 20260904130923 | 75 | 141 | 0.0 | 0.0 | 0.00 | 0.48 | 0.00 | 98 | 1010.8 |
| 20260904130725 | 75 | 140 | 0.0 | 0.0 | 0.00 | 0.48 | 0.00 | 98 | 1010.7 |
| 20260904130702 | 75 | 141 | 0.0 | 0.0 | 0.00 | 0.48 | 0.00 | 98 | 1010.7 |
| 20260904130523 | 74 | 141 | 0.0 | 0.0 | 0.00 | 0.48 | 0.00 | 98 | 1010.8 |
| 20260904130322 | 0 | 140 | 0.0 | 0.0 | 0.00 | 0.48 | 0.00 | 1010.9 | |
| 20260904130210 | 0 | 141 | 0.0 | 0.0 | 0.00 | 0.48 | 0.00 | 1010.7 | |
| 20260904130202 | 0 | 141 | 0.0 | 0.0 | 0.00 | 0.48 | 0.00 | 1010.9 | |
| 20260904130001 | 0 | 141 | 0.0 | 0.0 | 0.00 | 0.48 | 0.00 | 1010.5 | |
| 20260904125709 | 0 | 0.0 | 0.0 | 0.00 | 0.00 | 0.00 | 1010.7 | ||
| 20260904125331 | 0 | 0.0 | 0.0 | 0.00 | 0.48 | 0.00 | |||
| 20260904125306 | 0 | 0.0 | 0.0 | 0.00 | 0.48 | 0.00 | |||
| 20260904125031 | 0 | 0.0 | 0.0 | 0.00 | 0.48 | 0.00 | |||
| 20260904124805 | 0 | 0.0 | 0.0 | 0.00 | 0.48 | 0.00 | |||
| 20260904124604 | 0 | 0.0 | 0.0 | 0.00 | 0.48 | 0.00 | |||
| 20260904124411 | 0 | 0.0 | 0.0 | 0.00 | 0.48 | 0.00 | |||
| 20260904124233 | 0 | 0.0 | 0.0 | 0.00 | 0.48 | 0.00 | 1010.4 | ||
| 20260904124003 | 0 | 0.0 | 0.0 | 0.00 | 0.48 | 0.00 | 1010.4 | ||
| 20260904123849 | 72 | 127 | 0.0 | 0.0 | 0.00 | 0.48 | 0.00 | 97 | 1010.4 |
| 20260904123746 | 72 | 127 | 0.0 | 0.0 | 0.00 | 0.48 | 0.00 | 97 | 1010.4 |
| 20260904123531 | 72 | 127 | 0.0 | 0.0 | 0.00 | 0.48 | 0.00 | 97 | 1010.4 |
| 20260904123320 | 72 | 127 | 0.0 | 0.0 | 0.00 | 0.48 | 0.00 | 97 | 1010.4 |
| 20260904123230 | 72 | 127 | 0.0 | 0.0 | 0.00 | 0.48 | 0.00 | 97 | 1010.3 |
| 20260904123116 | 72 | 127 | 0.0 | 0.0 | 0.00 | 0.48 | 0.00 | 97 | 1010.4 |
| 20260904122904 | 72 | 127 | 0.0 | 0.0 | 0.00 | 0.48 | 0.00 | 97 | 1010.3 |
| 20260904122800 | 72 | 125 | 0.0 | 0.0 | 0.00 | 0.48 | 0.00 | 97 | 1010.2 |
| 20260904122731 | 72 | 125 | 0.0 | 0.0 | 0.00 | 0.48 | 0.00 | 97 | 1010.3 |
| 20260904122504 | 72 | 125 | 0.0 | 0.0 | 0.00 | 0.48 | 0.00 | 97 | 1010.2 |
| 20260904122404 | 72 | 125 | 0.0 | 0.0 | 0.00 | 0.48 | 0.00 | 97 | 1010.3 |
| 20260904122217 | 72 | 127 | 0.0 | 0.0 | 0.00 | 0.48 | 0.00 | 97 | 1010.3 |
| 20260904122106 | 72 | 127 | 0.0 | 0.0 | 0.00 | 0.48 | 0.00 | 97 | 1010.3 |
| 20260904121905 | 72 | 127 | 0.0 | 0.0 | 0.00 | 0.48 | 0.00 | 97 | 1010.1 |
| 20260904121708 | 72 | 127 | 0.0 | 0.0 | 0.00 | 0.48 | 0.00 | 97 | 1010.2 |
| 20260904121613 | 72 | 125 | 0.0 | 0.0 | 0.00 | 0.48 | 0.00 | 97 | 1010.1 |
| 20260904121518 | 72 | 127 | 0.0 | 0.0 | 0.00 | 0.48 | 0.00 | 97 | 1010.2 |
| 20260904121447 | 72 | 127 | 0.0 | 0.0 | 0.00 | 0.48 | 0.00 | 97 | 1010.2 |
| 20260904121107 | 72 | 127 | 0.0 | 0.0 | 0.00 | 0.48 | 0.00 | 97 | 1010.0 |
| 20260904120902 | 72 | 127 | 0.0 | 0.0 | 0.00 | 0.48 | 0.00 | 97 | 1010.1 |
| 20260904120703 | 72 | 127 | 0.0 | 0.0 | 0.00 | 0.48 | 0.00 | 97 | 1010.0 |
| 20260904120604 | 72 | 127 | 0.0 | 0.0 | 0.00 | 0.48 | 0.00 | 97 | 1010.1 |
| 20260904120440 | 72 | 127 | 0.0 | 0.0 | 0.00 | 0.48 | 0.00 | 97 | 1010.1 |
| 20260904120154 | 72 | 125 | 0.0 | 0.0 | 0.00 | 0.48 | 0.00 | 97 | 1010.1 |
| 20260904115855 | 73 | 127 | 0.0 | 0.0 | 0.00 | 0.48 | 0.00 | 97 | 1010.0 |
| 20260904115708 | 73 | 127 | 0.0 | 0.0 | 0.00 | 0.48 | 0.00 | 97 | 1009.8 |
| 20260904115657 | 73 | 127 | 0.0 | 0.0 | 0.00 | 0.48 | 0.00 | 97 | 1009.8 |
| 20260904115513 | 73 | 127 | 0.0 | 0.0 | 0.00 | 0.48 | 0.00 | 97 | 1009.9 |
| 20260904115502 | 73 | 127 | 0.0 | 0.0 | 0.00 | 0.48 | 0.00 | 97 | 1009.9 |
| 20260904115429 | 73 | 127 | 0.0 | 0.0 | 0.00 | 0.48 | 0.00 | 97 | 1009.9 |
| 20260904115127 | 73 | 127 | 0.0 | 0.0 | 0.00 | 0.48 | 0.00 | 97 | 1010.0 |
| 20260904114834 | 73 | 157 | 0.0 | 0.0 | 0.00 | 0.48 | 0.00 | 97 | 1010.0 |
| 20260904114739 | 73 | 158 | 0.0 | 0.0 | 0.00 | 0.48 | 0.00 | 97 | 1010.0 |
| 20260904114706 | 73 | 158 | 0.0 | 0.0 | 0.00 | 0.48 | 0.00 | 97 | 1010.0 |
| 20260904114426 | 73 | 159 | 0.0 | 0.0 | 0.00 | 0.48 | 0.00 | 97 | 1009.8 |
| 20260904114227 | 73 | 158 | 0.0 | 0.0 | 0.00 | 0.48 | 0.00 | 97 | 1009.9 |
| 20260904114207 | 73 | 158 | 0.0 | 0.0 | 0.00 | 0.48 | 0.00 | 97 | 1009.8 |
| 20260904114024 | 73 | 158 | 0.0 | 0.0 | 0.00 | 0.48 | 0.00 | 97 | 1009.7 |
| 20260904113820 | 73 | 158 | 0.0 | 0.0 | 0.00 | 0.48 | 0.00 | 97 | 1009.8 |
| 20260904113709 | 73 | 157 | 0.0 | 0.0 | 0.00 | 0.48 | 0.00 | 97 | 1009.7 |
| 20260904113619 | 73 | 157 | 0.0 | 0.0 | 0.00 | 0.48 | 0.00 | 97 | 1009.7 |
| 20260904113507 | 73 | 158 | 0.0 | 0.0 | 0.00 | 0.48 | 0.00 | 97 | 1009.9 |
| 20260904113454 | 73 | 158 | 0.0 | 0.0 | 0.00 | 0.48 | 0.00 | 97 | 1009.8 |
| 20260904113427 | 73 | 159 | 0.0 | 0.0 | 0.00 | 0.48 | 0.00 | 97 | 1009.9 |
| 20260904113015 | 73 | 158 | 0.0 | 0.0 | 0.00 | 0.48 | 0.00 | 97 | 1010.0 |
| 20260904112815 | 73 | 158 | 0.0 | 0.0 | 0.00 | 0.48 | 0.00 | 97 | 1009.9 |
| 20260904112726 | 73 | 158 | 0.0 | 0.0 | 0.00 | 0.50 | 0.00 | 97 | 1009.7 |
| 20260904112707 | 73 | 158 | 0.0 | 0.0 | 0.00 | 0.48 | 0.00 | 97 | 1009.8 |
| 20260904112606 | 73 | 158 | 0.0 | 0.0 | 0.00 | 0.49 | 0.00 | 97 | 1009.7 |
| 20260904112536 | 73 | 158 | 0.0 | 0.0 | 0.00 | 0.55 | 0.00 | 97 | 1009.7 |
| 20260904112203 | 73 | 158 | 0.0 | 0.0 | 0.00 | 0.55 | 0.00 | 97 | 1009.7 |
| 20260904112005 | 73 | 158 | 0.0 | 0.0 | 0.00 | 0.55 | 0.00 | 97 | 1009.8 |
| 20260904111807 | 73 | 158 | 0.0 | 0.0 | 0.00 | 0.55 | 0.00 | 96 | 1009.9 |
| 20260904111707 | 73 | 157 | 0.0 | 0.0 | 0.00 | 0.55 | 0.00 | 97 | 1009.9 |
| 20260904111607 | 73 | 158 | 0.0 | 0.0 | 0.00 | 0.55 | 0.00 | 96 | 1009.9 |
| 20260904111452 | 73 | 158 | 0.0 | 0.0 | 0.00 | 0.55 | 0.00 | 96 | 1009.8 |
| 20260904111448 | 73 | 158 | 0.0 | 0.0 | 0.00 | 0.55 | 0.00 | 96 | 1009.8 |
| 20260904111442 | 73 | 158 | 0.0 | 0.0 | 0.00 | 0.55 | 0.00 | 96 | 1009.8 |
| 20260904111034 | 74 | 158 | 0.0 | 0.0 | 0.00 | 0.55 | 0.00 | 97 | 1009.8 |
| 20260904110735 | 74 | 158 | 0.0 | 0.0 | 0.00 | 0.55 | 0.00 | 97 | 1009.9 |
| 20260904110707 | 74 | 158 | 0.0 | 0.0 | 0.00 | 0.55 | 0.00 | 97 | 1009.8 |
| 20260904110526 | 74 | 158 | 0.0 | 0.0 | 0.00 | 0.55 | 0.00 | 97 | 1009.8 |
| 20260904110449 | 74 | 158 | 0.0 | 0.0 | 0.00 | 0.55 | 0.00 | 97 | 1009.7 |
| 20260904110432 | 74 | 158 | 0.0 | 0.0 | 0.00 | 0.55 | 0.00 | 97 | 1009.8 |
| 20260904110123 | 74 | 158 | 0.0 | 0.0 | 0.00 | 0.55 | 0.00 | 97 | 1009.7 |
| 20260904105922 | 74 | 158 | 0.0 | 0.0 | 0.00 | 0.55 | 0.00 | 97 | 1009.7 |
| 20260904105827 | 74 | 157 | 0.0 | 0.0 | 0.00 | 0.55 | 0.00 | 97 | 1009.7 |
| 20260904105705 | 74 | 158 | 0.0 | 0.0 | 0.00 | 0.55 | 0.00 | 97 | 1009.7 |
| 20260904105522 | 74 | 158 | 0.0 | 0.0 | 0.00 | 0.55 | 0.00 | 97 | 1009.8 |
| 20260904105321 | 74 | 158 | 0.0 | 0.0 | 0.00 | 0.55 | 0.00 | 97 | 1009.7 |
| 20260904105201 | 74 | 158 | 0.0 | 0.0 | 0.00 | 0.55 | 0.00 | 97 | 1009.7 |
| 20260904105126 | 73 | 158 | 0.0 | 0.0 | 0.00 | 0.55 | 0.00 | 97 | 1009.8 |
| 20260904105118 | 74 | 159 | 0.0 | 0.0 | 0.00 | 0.55 | 0.00 | 97 | 1009.7 |
| 20260904104716 | 73 | 158 | 0.0 | 0.0 | 0.00 | 0.55 | 0.00 | 97 | 1009.8 |
| 20260904104701 | 73 | 157 | 0.0 | 0.0 | 0.00 | 0.55 | 0.00 | 97 | 1009.7 |
| 20260904104514 | 73 | 158 | 0.0 | 0.0 | 0.00 | 0.55 | 0.00 | 97 | 1009.7 |
| 20260904104313 | 73 | 158 | 0.0 | 0.0 | 0.00 | 0.55 | 0.00 | 97 | 1009.7 |
| 20260904104203 | 73 | 157 | 0.0 | 0.0 | 0.00 | 0.55 | 0.00 | 97 | 1009.7 |
| 20260904104109 | 72 | 159 | 0.0 | 0.0 | 0.00 | 0.55 | 0.00 | 97 | 1009.7 |
| 20260904103909 | 72 | 158 | 0.0 | 0.0 | 0.00 | 0.55 | 0.00 | 96 | 1009.7 |
| 20260904103714 | 72 | 157 | 0.0 | 0.0 | 0.00 | 0.55 | 0.00 | 97 | 1009.8 |
| 20260904103701 | 72 | 157 | 0.0 | 0.0 | 0.00 | 0.55 | 0.00 | 96 | 1009.8 |
| 20260904103305 | 73 | 158 | 0.0 | 0.0 | 0.00 | 0.55 | 0.00 | 97 | 1009.8 |
| 20260904103202 | 73 | 158 | 0.0 | 0.0 | 0.00 | 0.55 | 0.00 | 97 | 1009.7 |
| 20260904103106 | 73 | 157 | 0.0 | 0.0 | 0.00 | 0.55 | 0.00 | 97 | 1009.8 |
| 20260904102855 | 73 | 157 | 0.0 | 0.0 | 0.00 | 0.55 | 0.00 | 97 | 1009.8 |
| 20260904102632 | 73 | 157 | 0.0 | 0.0 | 0.00 | 0.55 | 0.00 | 96 | 1009.9 |
| 20260904102431 | 73 | 157 | 0.0 | 0.0 | 0.00 | 0.55 | 0.00 | 96 | 1009.9 |
| 20260904102246 | 73 | 157 | 0.0 | 0.0 | 0.00 | 0.55 | 0.00 | 97 | 1009.8 |
| 20260904102231 | 73 | 157 | 0.0 | 0.0 | 0.00 | 0.55 | 0.00 | 97 | 1009.9 |
| 20260904102144 | 73 | 157 | 0.0 | 0.0 | 0.00 | 0.55 | 0.00 | 97 | 1009.8 |
| 20260904101921 | 73 | 157 | 0.0 | 0.0 | 0.00 | 0.55 | 0.00 | 96 | 1009.8 |
| 20260904101911 | 73 | 157 | 0.0 | 0.0 | 0.00 | 0.55 | 0.00 | 97 | 1009.8 |
| 20260904101620 | 73 | 155 | 0.0 | 0.0 | 0.00 | 0.55 | 0.00 | 96 | 1009.8 |
| 20260904101434 | 73 | 157 | 0.0 | 0.0 | 0.00 | 0.55 | 0.00 | 96 | 1009.6 |
| 20260904101426 | 73 | 157 | 0.0 | 0.0 | 0.00 | 0.55 | 0.00 | 96 | 1009.7 |
| 20260904101358 | 73 | 157 | 0.0 | 0.0 | 0.00 | 0.55 | 0.00 | 96 | 1009.7 |
| 20260904101120 | 73 | 157 | 0.0 | 0.0 | 0.00 | 0.55 | 0.00 | 96 | 1009.6 |
| 20260904100816 | 73 | 158 | 0.0 | 0.0 | 0.00 | 0.55 | 0.00 | 96 | 1009.6 |
| 20260904100636 | 73 | 158 | 0.0 | 0.0 | 0.00 | 0.55 | 0.00 | 96 | 1009.7 |
| 20260904100618 | 73 | 157 | 0.0 | 0.0 | 0.00 | 0.55 | 0.00 | 96 | 1009.6 |
| 20260904100428 | 73 | 157 | 0.0 | 0.0 | 0.00 | 0.55 | 0.00 | 97 | 1009.6 |
| 20260904100421 | 73 | 158 | 0.0 | 0.0 | 0.00 | 0.55 | 0.00 | 96 | 1009.6 |
| 20260904100357 | 73 | 157 | 0.0 | 0.0 | 0.00 | 0.55 | 0.00 | 97 | 1009.6 |
| 20260904100116 | 73 | 157 | 0.0 | 0.0 | 0.00 | 0.55 | 0.00 | 97 | 1009.6 |
| 20260904095749 | 73 | 158 | 0.0 | 0.0 | 0.00 | 0.55 | 0.00 | 97 | 1009.6 |
| 20260904095644 | 73 | 157 | 0.0 | 0.0 | 0.00 | 0.55 | 0.00 | 96 | 1009.6 |
| 20260904095629 | 73 | 158 | 0.0 | 0.0 | 0.00 | 0.55 | 0.00 | 96 | 1009.6 |
| 20260904095425 | 73 | 157 | 0.0 | 0.0 | 0.00 | 0.55 | 0.00 | 96 | 1009.6 |
| 20260904095413 | 73 | 155 | 0.0 | 0.0 | 0.00 | 0.55 | 0.00 | 97 | 1009.6 |
| 20260904095345 | 73 | 157 | 0.0 | 0.0 | 0.00 | 0.55 | 0.00 | 96 | 1009.6 |
| 20260904094941 | 73 | 158 | 0.0 | 0.0 | 0.00 | 0.55 | 0.00 | 96 | 1009.7 |
| 20260904094738 | 73 | 158 | 0.0 | 0.0 | 0.00 | 0.55 | 0.00 | 96 | 1009.7 |
| 20260904094642 | 73 | 158 | 0.0 | 0.0 | 0.00 | 0.55 | 0.00 | 96 | 1009.7 |
| 20260904094629 | 73 | 157 | 0.0 | 0.0 | 0.00 | 0.55 | 0.00 | 96 | 1009.7 |
| 20260904094426 | 73 | 157 | 0.0 | 0.0 | 0.00 | 0.55 | 0.00 | 96 | 1009.7 |
| 20260904094411 | 73 | 157 | 0.0 | 0.0 | 0.00 | 0.55 | 0.00 | 96 | 1009.7 |
| 20260904093939 | 73 | 157 | 0.0 | 0.0 | 0.00 | 0.55 | 0.00 | 96 | 1009.6 |
| 20260904093741 | 73 | 157 | 0.0 | 0.0 | 0.00 | 0.55 | 0.00 | 96 | 1009.5 |
| 20260904093630 | 73 | 158 | 0.0 | 0.0 | 0.00 | 0.55 | 0.00 | 96 | 1009.5 |
| 20260904093533 | 73 | 158 | 0.0 | 0.0 | 0.00 | 0.55 | 0.00 | 96 | 1009.5 |
| 20260904093436 | 73 | 159 | 0.0 | 0.0 | 0.00 | 0.55 | 0.00 | 96 | 1009.4 |
| 20260904093421 | 73 | 157 | 0.0 | 0.0 | 0.00 | 0.55 | 0.00 | 96 | 1009.5 |
| 20260904093347 | 73 | 159 | 0.0 | 0.0 | 0.00 | 0.55 | 0.00 | 96 | 1009.4 |
| 20260904092932 | 73 | 157 | 0.0 | 0.0 | 0.00 | 0.55 | 0.00 | 96 | 1009.5 |
| 20260904092833 | 73 | 157 | 0.0 | 0.0 | 0.00 | 0.55 | 0.00 | 96 | 1009.5 |
| 20260904092630 | 73 | 155 | 0.0 | 0.0 | 0.00 | 0.55 | 0.00 | 96 | 1009.5 |
| 20260904092541 | 73 | 158 | 0.0 | 0.0 | 0.00 | 0.55 | 0.00 | 96 | 1009.4 |
| 20260904092534 | 73 | 157 | 0.0 | 0.0 | 0.00 | 0.55 | 0.00 | 96 | 1009.5 |
| 20260904092437 | 73 | 155 | 0.0 | 0.0 | 0.00 | 0.55 | 0.00 | 96 | 1009.4 |
| 20260904092346 | 73 | 155 | 0.0 | 0.0 | 0.00 | 0.55 | 0.00 | 96 | 1009.4 |
| 20260904091933 | 73 | 157 | 0.0 | 0.0 | 0.00 | 0.55 | 0.00 | 96 | 1009.4 |
| 20260904091716 | 73 | 157 | 0.0 | 0.0 | 0.00 | 0.55 | 0.00 | 96 | 1009.4 |
| 20260904091628 | 73 | 157 | 0.0 | 0.0 | 0.00 | 0.55 | 0.00 | 96 | 1009.5 |
| 20260904091528 | 73 | 158 | 0.0 | 0.0 | 0.00 | 0.55 | 0.00 | 96 | 1009.5 |
| 20260904091524 | 73 | 157 | 0.0 | 0.0 | 0.00 | 0.55 | 0.00 | 96 | 1009.4 |
| 20260904091415 | 73 | 157 | 0.0 | 0.0 | 0.00 | 0.55 | 0.00 | 96 | 1009.5 |
| 20260904091114 | 73 | 157 | 0.0 | 0.0 | 0.00 | 0.55 | 0.00 | 96 | 1009.5 |
| 20260904091015 | 73 | 157 | 0.0 | 0.0 | 0.00 | 0.55 | 0.00 | 96 | 1009.5 |
| 20260904090714 | 73 | 158 | 0.0 | 0.0 | 0.00 | 0.55 | 0.00 | 96 | 1009.4 |
| 20260904090629 | 73 | 158 | 0.0 | 0.0 | 0.00 | 0.55 | 0.00 | 96 | 1009.4 |
| 20260904090513 | 73 | 157 | 0.0 | 0.0 | 0.00 | 0.55 | 0.00 | 96 | 1009.4 |
| 20260904090315 | 73 | 159 | 0.0 | 0.0 | 0.00 | 0.55 | 0.00 | 96 | 1009.4 |
| 20260904090115 | 73 | 157 | 0.0 | 0.0 | 0.00 | 0.55 | 0.00 | 96 | 1009.4 |
| 20260904090012 | 73 | 157 | 0.0 | 0.0 | 0.00 | 0.55 | 0.00 | 96 | 1009.4 |
| 20260904085713 | 73 | 158 | 0.0 | 0.0 | 0.00 | 0.55 | 0.00 | 96 | 1009.4 |
| 20260904085624 | 73 | 157 | 0.0 | 0.0 | 0.00 | 0.55 | 0.00 | 96 | 1009.3 |
| 20260904085615 | 73 | 157 | 0.0 | 0.0 | 0.00 | 0.55 | 0.00 | 96 | 1009.4 |
| 20260904085315 | 73 | 157 | 0.0 | 0.0 | 0.00 | 0.55 | 0.00 | 96 | 1009.4 |
| 20260904085215 | 74 | 155 | 0.0 | 0.0 | 0.00 | 0.55 | 0.00 | 96 | 1009.4 |
| 20260904085114 | 74 | 155 | 0.0 | 0.0 | 0.00 | 0.55 | 0.00 | 96 | 1009.4 |
| 20260904084924 | 73 | 158 | 0.0 | 0.0 | 0.00 | 0.55 | 0.00 | 96 | 1009.4 |
| 20260904084717 | 73 | 158 | 0.0 | 0.0 | 0.00 | 0.55 | 0.00 | 95 | 1009.4 |
| 20260904084613 | 74 | 157 | 0.0 | 0.0 | 0.00 | 0.55 | 0.00 | 95 | 1009.3 |
| 20260904084530 | 74 | 158 | 0.0 | 0.0 | 0.00 | 0.55 | 0.00 | 95 | 1009.3 |
| 20260904084316 | 74 | 157 | 0.0 | 0.0 | 0.00 | 0.55 | 0.00 | 95 | 1009.3 |
| 20260904084117 | 74 | 158 | 0.0 | 0.0 | 0.00 | 0.55 | 0.00 | 95 | 1009.3 |
| 20260904084022 | 74 | 157 | 0.0 | 0.0 | 0.00 | 0.55 | 0.00 | 95 | 1009.2 |
| 20260904083822 | 74 | 157 | 0.0 | 0.0 | 0.00 | 0.55 | 0.00 | 96 | 1009.2 |
| 20260904083615 | 74 | 155 | 0.0 | 0.0 | 0.00 | 0.55 | 0.00 | 96 | 1009.3 |
| 20260904083517 | 74 | 157 | 0.0 | 0.0 | 0.00 | 0.55 | 0.00 | 96 | 1009.2 |
| 20260904083316 | 74 | 158 | 0.0 | 0.0 | 0.00 | 0.55 | 0.00 | 96 | 1009.3 |
| 20260904083118 | 74 | 158 | 0.0 | 0.0 | 0.00 | 0.55 | 0.00 | 96 | 1009.2 |
| 20260904082921 | 74 | 157 | 0.0 | 0.0 | 0.00 | 0.55 | 0.00 | 95 | 1009.2 |
| 20260904082721 | 74 | 157 | 0.0 | 0.0 | 0.00 | 0.55 | 0.00 | 95 | 1009.2 |
| 20260904082627 | 74 | 158 | 0.0 | 0.0 | 0.00 | 0.55 | 0.00 | 95 | 1009.2 |
| 20260904082618 | 74 | 157 | 0.0 | 0.0 | 0.00 | 0.55 | 0.00 | 95 | 1009.2 |
| 20260904082418 | 74 | 158 | 0.0 | 0.0 | 0.00 | 0.55 | 0.00 | 95 | 1009.3 |
| 20260904082120 | 74 | 158 | 0.0 | 0.0 | 0.00 | 0.55 | 0.00 | 95 | 1009.2 |
| 20260904081918 | 74 | 157 | 0.0 | 0.0 | 0.00 | 0.55 | 0.00 | 95 | 1009.2 |
| 20260904081721 | 74 | 157 | 0.0 | 0.0 | 0.00 | 0.55 | 0.00 | 95 | 1009.2 |
| 20260904081617 | 74 | 158 | 0.0 | 0.0 | 0.00 | 0.55 | 0.00 | 95 | 1009.1 |
| 20260904081525 | 74 | 158 | 0.0 | 0.0 | 0.00 | 0.55 | 0.00 | 95 | 1009.1 |
| 20260904081318 | 74 | 155 | 0.0 | 0.0 | 0.00 | 0.55 | 0.00 | 95 | 1009.2 |
| 20260904081118 | 74 | 157 | 0.0 | 0.0 | 0.00 | 0.55 | 0.00 | 95 | 1009.2 |
| 20260904081036 | 74 | 157 | 0.0 | 0.0 | 0.00 | 0.55 | 0.00 | 95 | 1009.1 |
| 20260904080722 | 74 | 157 | 0.0 | 0.0 | 0.00 | 0.55 | 0.00 | 95 | 1009.1 |
| 20260904080618 | 74 | 157 | 0.0 | 0.0 | 0.00 | 0.55 | 0.00 | 95 | 1009.2 |
| 20260904080517 | 74 | 157 | 0.0 | 0.0 | 0.00 | 0.55 | 0.00 | 95 | 1009.1 |
| 20260904080318 | 74 | 158 | 0.0 | 0.0 | 0.00 | 0.55 | 0.00 | 95 | 1009.1 |
| 20260904080119 | 74 | 157 | 0.0 | 0.0 | 0.00 | 0.55 | 0.00 | 95 | 1009.1 |
| 20260904080025 | 74 | 157 | 0.0 | 0.0 | 0.00 | 0.55 | 0.00 | 95 | 1009.1 |
| 20260904075716 | 74 | 157 | 0.0 | 0.0 | 0.00 | 0.55 | 0.00 | 95 | 1009.1 |
| 20260904075627 | 75 | 157 | 0.0 | 0.0 | 0.00 | 0.55 | 0.00 | 95 | 1009.1 |
| 20260904075614 | 74 | 157 | 0.0 | 0.0 | 0.00 | 0.55 | 0.00 | 95 | 1009.1 |
| 20260904075318 | 75 | 157 | 0.0 | 0.0 | 0.00 | 0.55 | 0.00 | 95 | 1009.2 |
| 20260904075122 | 75 | 158 | 0.0 | 0.0 | 0.00 | 0.55 | 0.00 | 95 | 1009.2 |
| 20260904074917 | 75 | 159 | 0.0 | 0.0 | 0.00 | 0.55 | 0.00 | 94 | 1009.1 |
| 20260904074717 | 75 | 158 | 0.0 | 0.0 | 0.00 | 0.55 | 0.00 | 94 | 1009.2 |
| 20260904074619 | 75 | 158 | 0.0 | 0.0 | 0.00 | 0.55 | 0.00 | 94 | 1009.2 |
| 20260904074602 | 75 | 158 | 0.0 | 0.0 | 0.00 | 0.55 | 0.00 | 94 | 1009.2 |
| 20260904074315 | 75 | 157 | 0.0 | 0.0 | 0.00 | 0.55 | 0.00 | 94 | 1009.1 |
| 20260904074220 | 75 | 157 | 0.0 | 0.0 | 0.00 | 0.55 | 0.00 | 94 | 1009.1 |
| 20260904074101 | 75 | 158 | 0.0 | 0.0 | 0.00 | 0.55 | 0.00 | 94 | 1009.1 |
| 20260904073919 | 75 | 157 | 0.0 | 0.0 | 0.00 | 0.55 | 0.00 | 94 | 1009.1 |
| 20260904073719 | 75 | 157 | 0.0 | 0.0 | 0.00 | 0.55 | 0.00 | 94 | 1009.1 |
| 20260904073601 | 75 | 157 | 0.0 | 0.0 | 0.00 | 0.55 | 0.00 | 94 | 1009.1 |
| 20260904073521 | 75 | 158 | 0.0 | 0.0 | 0.00 | 0.55 | 0.00 | 94 | 1009.1 |
| 20260904073320 | 75 | 157 | 0.0 | 0.0 | 0.00 | 0.55 | 0.00 | 94 | 1009.2 |
| 20260904073223 | 75 | 155 | 0.0 | 0.0 | 0.00 | 0.55 | 0.00 | 94 | 1009.1 |
| 20260904073101 | 75 | 158 | 0.0 | 0.0 | 0.00 | 0.55 | 0.00 | 94 | 1009.2 |
| 20260904072918 | 75 | 158 | 0.0 | 0.0 | 0.00 | 0.55 | 0.00 | 94 | 1009.1 |
| 20260904072903 | 75 | 158 | 0.0 | 0.0 | 0.00 | 0.55 | 0.00 | 94 | 1009.1 |
| 20260904072858 | 75 | 157 | 0.0 | 0.0 | 0.00 | 0.55 | 0.00 | 94 | 1009.1 |
| 20260904072832 | 75 | 157 | 0.0 | 0.0 | 0.00 | 0.55 | 0.00 | 94 | 1009.2 |
| 20260904072323 | 75 | 157 | 0.0 | 0.0 | 0.00 | 0.55 | 0.00 | 94 | 1009.1 |
| 20260904072218 | 75 | 157 | 0.0 | 0.0 | 0.00 | 0.55 | 0.00 | 94 | 1009.1 |
| 20260904072101 | 75 | 158 | 0.0 | 0.0 | 0.00 | 0.55 | 0.00 | 94 | 1009.1 |
| 20260904071917 | 76 | 158 | 0.0 | 0.0 | 0.00 | 0.55 | 0.00 | 94 | 1009.1 |
| 20260904071859 | 76 | 158 | 0.0 | 0.0 | 0.00 | 0.55 | 0.00 | 94 | 1009.1 |
| 20260904071834 | 76 | 157 | 0.0 | 0.0 | 0.00 | 0.55 | 0.00 | 94 | 1009.1 |
| 20260904071522 | 76 | 158 | 0.0 | 0.0 | 0.00 | 0.55 | 0.00 | 94 | 1009.1 |
| 20260904071318 | 76 | 157 | 0.0 | 0.0 | 0.00 | 0.55 | 0.00 | 94 | 1009.2 |
| 20260904071224 | 76 | 158 | 0.0 | 0.0 | 0.00 | 0.55 | 0.00 | 93 | 1009.1 |
| 20260904071100 | 76 | 157 | 0.0 | 0.0 | 0.00 | 0.55 | 0.00 | 93 | 1009.1 |
| 20260904070934 | 76 | 158 | 0.0 | 0.0 | 0.00 | 0.55 | 0.00 | 93 | 1009.2 |
| 20260904070917 | 76 | 158 | 0.0 | 0.0 | 0.00 | 0.55 | 0.00 | 93 | 1009.1 |
| 20260904070853 | 76 | 158 | 0.0 | 0.0 | 0.00 | 0.55 | 0.00 | 93 | 1009.1 |
| 20260904070533 | 76 | 158 | 0.0 | 0.0 | 0.00 | 0.55 | 0.00 | 93 | 1009.1 |
| 20260904070318 | 76 | 158 | 0.0 | 0.0 | 0.00 | 0.55 | 0.00 | 93 | 1009.2 |
| 20260904070118 | 76 | 158 | 0.0 | 0.0 | 0.00 | 0.55 | 0.00 | 93 | 1009.1 |
| 20260904070031 | 76 | 158 | 0.0 | 0.0 | 0.00 | 0.55 | 0.00 | 93 | 1009.1 |
| 20260904065916 | 76 | 157 | 0.0 | 0.0 | 0.00 | 0.55 | 0.00 | 93 | 1009.2 |
| 20260904065815 | 76 | 157 | 0.0 | 0.0 | 0.00 | 0.55 | 0.00 | 93 | 1009.2 |
| 20260904065523 | 76 | 157 | 0.0 | 0.0 | 0.00 | 0.55 | 0.00 | 93 | 1009.2 |
| 20260904065419 | 76 | 158 | 0.0 | 0.0 | 0.00 | 0.55 | 0.00 | 93 | 1009.2 |
| 20260904065116 | 76 | 157 | 0.0 | 0.0 | 0.00 | 0.55 | 0.00 | 93 | 1009.2 |
| 20260904065026 | 76 | 155 | 0.0 | 0.0 | 0.00 | 0.55 | 0.00 | 93 | 1009.1 |
| 20260904064918 | 76 | 158 | 0.0 | 0.0 | 0.00 | 0.55 | 0.00 | 93 | 1009.1 |
| 20260904064819 | 76 | 158 | 0.0 | 0.0 | 0.00 | 0.55 | 0.00 | 93 | 1009.1 |
| 20260904064522 | 76 | 157 | 0.0 | 0.0 | 0.00 | 0.55 | 0.00 | 93 | 1009.2 |
| 20260904064419 | 76 | 157 | 0.0 | 0.0 | 0.00 | 0.55 | 0.00 | 93 | 1009.1 |
| 20260904064116 | 77 | 155 | 0.0 | 0.0 | 0.00 | 0.55 | 0.00 | 93 | 1009.2 |
| 20260904064025 | 77 | 158 | 0.0 | 0.0 | 0.00 | 0.55 | 0.00 | 93 | 1009.2 |
| 20260904063919 | 76 | 157 | 0.0 | 0.0 | 0.00 | 0.55 | 0.00 | 93 | 1009.2 |
| 20260904063717 | 77 | 157 | 0.0 | 0.0 | 0.00 | 0.55 | 0.00 | 93 | 1009.2 |
| 20260904063525 | 77 | 158 | 0.0 | 0.0 | 0.00 | 0.55 | 0.00 | 93 | 1009.3 |
| 20260904063521 | 77 | 157 | 0.0 | 0.0 | 0.00 | 0.55 | 0.00 | 93 | 1009.3 |
| 20260904063421 | 77 | 158 | 0.0 | 0.0 | 0.00 | 0.55 | 0.00 | 93 | 1009.3 |
| 20260904063117 | 77 | 158 | 0.0 | 0.0 | 0.00 | 0.55 | 0.00 | 93 | 1009.1 |
| 20260904063035 | 77 | 157 | 0.0 | 0.0 | 0.00 | 0.55 | 0.00 | 93 | 1009.2 |
| 20260904063024 | 77 | 157 | 0.0 | 0.0 | 0.00 | 0.55 | 0.00 | 93 | 1009.1 |
| 20260904062718 | 77 | 157 | 0.0 | 0.0 | 0.00 | 0.55 | 0.00 | 93 | 1009.2 |
| 20260904062517 | 77 | 158 | 0.0 | 0.0 | 0.00 | 0.55 | 0.00 | 93 | 1009.2 |
| 20260904062317 | 77 | 157 | 0.0 | 0.0 | 0.00 | 0.55 | 0.00 | 93 | 1009.3 |
| 20260904062119 | 77 | 158 | 0.0 | 0.0 | 0.00 | 0.55 | 0.00 | 93 | 1009.3 |
| 20260904062034 | 77 | 157 | 0.0 | 0.0 | 0.00 | 0.55 | 0.00 | 93 | 1009.2 |
| 20260904062023 | 77 | 158 | 0.0 | 0.0 | 0.00 | 0.55 | 0.00 | 93 | 1009.2 |
| 20260904061727 | 77 | 158 | 0.0 | 0.0 | 0.00 | 0.55 | 0.00 | 92 | 1009.3 |
| 20260904061634 | 77 | 158 | 0.0 | 0.0 | 0.00 | 0.55 | 0.00 | 92 | 1009.3 |
| 20260904061533 | 77 | 158 | 0.0 | 0.0 | 0.00 | 0.55 | 0.00 | 92 | 1009.3 |
| 20260904061321 | 77 | 158 | 0.0 | 0.0 | 0.00 | 0.55 | 0.00 | 92 | 1009.3 |
| 20260904061118 | 77 | 158 | 0.0 | 0.0 | 0.00 | 0.55 | 0.00 | 92 | 1009.2 |
| 20260904061025 | 77 | 158 | 0.0 | 0.0 | 0.00 | 0.55 | 0.00 | 92 | 1009.3 |
| 20260904060921 | 77 | 158 | 0.0 | 0.0 | 0.00 | 0.55 | 0.00 | 92 | 1009.3 |
| 20260904060727 | 77 | 158 | 0.0 | 0.0 | 0.00 | 0.55 | 0.00 | 92 | 1009.2 |
| 20260904060532 | 77 | 155 | 0.0 | 0.0 | 0.00 | 0.55 | 0.00 | 92 | 1009.3 |
| 20260904060319 | 77 | 157 | 0.0 | 0.0 | 0.00 | 0.55 | 0.00 | 92 | 1009.3 |
| 20260904060119 | 77 | 157 | 0.0 | 0.0 | 0.00 | 0.55 | 0.00 | 92 | 1009.2 |
| 20260904060020 | 77 | 155 | 0.0 | 0.0 | 0.00 | 0.55 | 0.00 | 92 | 1009.2 |
| 20260904055917 | 77 | 158 | 0.0 | 0.0 | 0.00 | 0.55 | 0.00 | 92 | 1009.3 |
| 20260904055818 | 77 | 157 | 0.0 | 0.0 | 0.00 | 0.55 | 0.00 | 92 | 1009.2 |
| 20260904055633 | 77 | 157 | 0.0 | 0.0 | 0.00 | 0.55 | 0.00 | 92 | 1009.3 |
| 20260904055521 | 77 | 157 | 0.0 | 0.0 | 0.00 | 0.55 | 0.00 | 92 | 1009.3 |
| 20260904055319 | 77 | 158 | 0.0 | 0.0 | 0.00 | 0.55 | 0.00 | 92 | 1009.3 |
| 20260904055117 | 77 | 155 | 0.0 | 0.0 | 0.00 | 0.55 | 0.00 | 92 | 1009.2 |
| 20260904055016 | 77 | 158 | 0.0 | 0.0 | 0.00 | 0.55 | 0.00 | 92 | 1009.3 |
| 20260904054916 | 77 | 157 | 0.0 | 0.0 | 0.00 | 0.55 | 0.00 | 92 | 1009.3 |
| 20260904054716 | 77 | 157 | 0.0 | 0.0 | 0.00 | 0.55 | 0.00 | 92 | 1009.3 |
| 20260904054522 | 77 | 158 | 0.0 | 0.0 | 0.00 | 0.55 | 0.00 | 92 | 1009.3 |
| 20260904054419 | 77 | 157 | 0.0 | 0.0 | 0.00 | 0.55 | 0.00 | 92 | 1009.2 |
| 20260904054223 | 77 | 158 | 0.0 | 0.0 | 0.00 | 0.55 | 0.00 | 92 | 1009.2 |
| 20260904054019 | 77 | 159 | 0.0 | 0.0 | 0.00 | 0.55 | 0.00 | 92 | 1009.3 |
| 20260904053918 | 77 | 157 | 0.0 | 0.0 | 0.00 | 0.55 | 0.00 | 92 | 1009.2 |
| 20260904053719 | 77 | 157 | 0.0 | 0.0 | 0.00 | 0.55 | 0.00 | 92 | 1009.2 |
| 20260904053520 | 77 | 157 | 0.0 | 0.0 | 0.00 | 0.55 | 0.00 | 92 | 1009.2 |
| 20260904053320 | 77 | 157 | 0.0 | 0.0 | 0.00 | 0.55 | 0.00 | 92 | 1009.2 |
| 20260904053120 | 77 | 158 | 0.0 | 0.0 | 0.00 | 0.55 | 0.00 | 92 | 1009.3 |
| 20260904053028 | 77 | 157 | 0.0 | 0.0 | 0.00 | 0.55 | 0.00 | 92 | 1009.2 |
| 20260904053018 | 77 | 157 | 0.0 | 0.0 | 0.00 | 0.55 | 0.00 | 92 | 1009.3 |
| 20260904052718 | 78 | 158 | 0.0 | 0.0 | 0.00 | 0.55 | 0.00 | 92 | 1009.2 |
| 20260904052626 | 78 | 157 | 0.0 | 0.0 | 0.00 | 0.55 | 0.00 | 91 | 1009.2 |
| 20260904052523 | 78 | 157 | 0.0 | 0.0 | 0.00 | 0.55 | 0.00 | 91 | 1009.2 |
| 20260904052318 | 77 | 155 | 0.0 | 0.0 | 0.00 | 0.55 | 0.00 | 91 | 1009.2 |
| 20260904052126 | 77 | 157 | 0.0 | 0.0 | 0.00 | 0.55 | 0.00 | 91 | 1009.2 |
| 20260904052033 | 78 | 158 | 0.0 | 0.0 | 0.00 | 0.55 | 0.00 | 91 | 1009.2 |
| 20260904052021 | 78 | 157 | 0.0 | 0.0 | 0.00 | 0.55 | 0.00 | 91 | 1009.1 |
| 20260904051718 | 78 | 158 | 0.0 | 0.0 | 0.00 | 0.55 | 0.00 | 91 | 1009.2 |
| 20260904051518 | 78 | 157 | 0.0 | 0.0 | 0.00 | 0.55 | 0.00 | 91 | 1009.2 |
| 20260904051320 | 78 | 158 | 0.0 | 0.0 | 0.00 | 0.55 | 0.00 | 91 | 1009.2 |
| 20260904051217 | 78 | 157 | 0.0 | 0.0 | 0.00 | 0.55 | 0.00 | 91 | 1009.2 |
| 20260904051031 | 78 | 157 | 0.0 | 0.0 | 0.00 | 0.55 | 0.00 | 91 | 1009.2 |
| 20260904050917 | 78 | 157 | 0.0 | 0.0 | 0.00 | 0.55 | 0.00 | 91 | 1009.2 |
| 20260904050719 | 78 | 159 | 0.0 | 0.0 | 0.00 | 0.55 | 0.00 | 91 | 1009.1 |
| 20260904050626 | 78 | 157 | 0.0 | 0.0 | 0.00 | 0.55 | 0.00 | 91 | 1009.2 |
| 20260904050521 | 78 | 157 | 0.0 | 0.0 | 0.00 | 0.55 | 0.00 | 91 | 1009.2 |
| 20260904050316 | 78 | 157 | 0.0 | 0.0 | 0.00 | 0.55 | 0.00 | 91 | 1009.2 |
| 20260904050120 | 78 | 158 | 0.0 | 0.0 | 0.00 | 0.55 | 0.00 | 91 | 1009.1 |
| 20260904050018 | 78 | 158 | 0.0 | 0.0 | 0.00 | 0.55 | 0.00 | 91 | 1009.1 |
| 20260904045918 | 78 | 155 | 0.0 | 0.0 | 0.00 | 0.55 | 0.55 | 91 | 1009.2 |
| 20260904045819 | 78 | 157 | 0.0 | 0.0 | 0.00 | 0.55 | 0.55 | 91 | 1009.2 |
| 20260904045505 | 78 | 157 | 0.0 | 0.0 | 0.00 | 0.55 | 0.55 | 91 | 1009.1 |
| 20260904045316 | 78 | 157 | 0.0 | 0.0 | 0.00 | 0.55 | 0.55 | 91 | 1009.2 |
| 20260904045219 | 78 | 157 | 0.0 | 0.0 | 0.00 | 0.55 | 0.55 | 91 | 1009.1 |
| 20260904045006 | 78 | 155 | 0.0 | 0.0 | 0.00 | 0.55 | 0.55 | 91 | 1009.1 |
| 20260904044915 | 78 | 157 | 0.0 | 0.0 | 0.00 | 0.55 | 0.55 | 91 | 1009.1 |
| 20260904044804 | 78 | 157 | 0.0 | 0.0 | 0.00 | 0.55 | 0.55 | 91 | 1009.2 |
| 20260904044754 | 78 | 157 | 0.0 | 0.0 | 0.00 | 0.55 | 0.55 | 91 | 1009.2 |
| 20260904044319 | 78 | 155 | 0.0 | 0.0 | 0.00 | 0.55 | 0.55 | 90 | 1009.1 |
| 20260904044306 | 78 | 155 | 0.0 | 0.0 | 0.00 | 0.55 | 0.55 | 90 | 1009.2 |
| 20260904044302 | 78 | 157 | 0.0 | 0.0 | 0.00 | 0.55 | 0.55 | 90 | 1009.2 |
| 20260904044243 | 78 | 157 | 0.0 | 0.0 | 0.00 | 0.55 | 0.55 | 90 | 1009.1 |
| 20260904043820 | 78 | 158 | 0.0 | 0.0 | 0.00 | 0.55 | 0.55 | 90 | 1009.1 |
| 20260904043504 | 78 | 158 | 0.0 | 0.0 | 0.00 | 0.55 | 0.55 | 90 | 1009.2 |
| 20260904043423 | 78 | 157 | 0.0 | 0.0 | 0.00 | 0.55 | 0.55 | 90 | 1009.1 |
| 20260904043309 | 78 | 157 | 0.0 | 0.0 | 0.00 | 0.55 | 0.55 | 90 | 1009.2 |
| 20260904043252 | 78 | 157 | 0.0 | 0.0 | 0.00 | 0.55 | 0.55 | 90 | 1009.1 |
| 20260904042917 | 78 | 157 | 0.0 | 0.0 | 0.00 | 0.55 | 0.55 | 90 | 1009.2 |
| 20260904042721 | 78 | 158 | 0.0 | 0.0 | 0.00 | 0.55 | 0.55 | 90 | 1009.1 |
| 20260904042524 | 78 | 157 | 0.0 | 0.0 | 0.00 | 0.55 | 0.55 | 90 | 1009.1 |
| 20260904042504 | 78 | 155 | 0.0 | 0.0 | 0.00 | 0.55 | 0.55 | 90 | 1009.1 |
| 20260904042421 | 78 | 155 | 0.0 | 0.0 | 0.00 | 0.55 | 0.55 | 89 | 1009.2 |
| 20260904042251 | 78 | 157 | 0.0 | 0.0 | 0.00 | 0.55 | 0.55 | 89 | 1009.1 |
| 20260904042247 | 78 | 157 | 0.0 | 0.0 | 0.00 | 0.55 | 0.55 | 89 | 1009.0 |
| 20260904042236 | 78 | 157 | 0.0 | 0.0 | 0.00 | 0.55 | 0.55 | 89 | 1009.0 |
| 20260904041705 | 78 | 155 | 0.0 | 0.0 | 0.00 | 0.55 | 0.55 | 89 | 1009.1 |
| 20260904041510 | 0 | 0.0 | 0.0 | 0.00 | 0.00 | 0.00 | 1009.1 | ||
| 20260904041232 | 0 | 0.0 | 0.0 | 0.00 | 0.55 | 0.55 | |||
| 20260904041008 | 0 | 0.0 | 0.0 | 0.00 | 0.55 | 0.55 | |||
| 20260904040834 | 0 | 0.0 | 0.0 | 0.00 | 0.55 | 0.55 | |||
| 20260904040702 | 0 | 0.0 | 0.0 | 0.00 | 0.55 | 0.55 | |||
| 20260904040505 | 0 | 0.0 | 0.0 | 0.00 | 0.55 | 0.55 | |||
| 20260904040405 | 0 | 0.0 | 0.0 | 0.00 | 0.55 | 0.55 | |||
| 20260904040204 | 0 | 0.0 | 0.0 | 0.00 | 0.55 | 0.55 | |||
| 20260904040008 | 0 | 0.0 | 0.0 | 0.00 | 0.55 | 0.55 | 1009.1 | ||
| 20260904035932 | 0 | 0.0 | 0.0 | 0.00 | 0.55 | 0.55 | 1009.1 | ||
| 20260904035831 | 0 | 0.0 | 0.0 | 0.00 | 0.55 | 0.55 | 1009.1 | ||
| 20260904035507 | 79 | 155 | 0.0 | 0.0 | 0.00 | 0.55 | 0.55 | 88 | 1009.1 |
| 20260904035331 | 79 | 155 | 0.0 | 0.0 | 0.00 | 0.55 | 0.55 | 88 | 1009.1 |
| 20260904035201 | 79 | 155 | 0.0 | 0.0 | 0.00 | 0.55 | 0.55 | 88 | 1009.1 |
| 20260904035004 | 79 | 155 | 0.0 | 0.0 | 0.00 | 0.55 | 0.55 | 88 | 1009.1 |
| 20260904034902 | 79 | 155 | 0.0 | 0.0 | 0.00 | 0.55 | 0.55 | 88 | 1009.1 |
| 20260904034702 | 79 | 155 | 0.0 | 0.0 | 0.00 | 0.55 | 0.55 | 88 | 1009.1 |
| 20260904034504 | 79 | 157 | 0.0 | 0.0 | 0.00 | 0.55 | 0.55 | 88 | 1009.1 |
| 20260904034354 | 79 | 155 | 0.0 | 0.0 | 0.00 | 0.55 | 0.55 | 88 | 1009.1 |
| 20260904034102 | 0 | 155 | 0.0 | 0.0 | 0.00 | 0.55 | 0.55 | 1009.1 | |
| 20260904034000 | 0 | 155 | 0.0 | 0.0 | 0.00 | 0.55 | 0.55 | 1009.1 | |
| 20260904033904 | 0 | 155 | 0.0 | 0.0 | 0.00 | 0.55 | 0.55 | 1009.1 | |
| 20260904033803 | 0 | 155 | 0.0 | 0.0 | 0.00 | 0.55 | 0.55 | 1009.1 | |
| 20260904033503 | 0 | 0.0 | 0.0 | 0.00 | 0.00 | 0.00 | 1009.1 | ||
| 20260904033211 | 0 | 0.0 | 0.0 | 0.00 | 0.55 | 0.55 | |||
| 20260904033003 | 0 | 0.0 | 0.0 | 0.00 | 0.55 | 0.55 | |||
| 20260904032936 | 0 | 0.0 | 0.0 | 0.00 | 0.55 | 0.55 | |||
| 20260904032923 | 0 | 0.0 | 0.0 | 0.00 | 0.55 | 0.55 | |||
| 20260904032752 | 0 | 0.0 | 0.0 | 0.00 | 0.55 | 0.55 | |||
| 20260904032748 | 0 | 0.0 | 0.0 | 0.00 | 0.55 | 0.55 | |||
| 20260904032335 | 0 | 0.0 | 0.0 | 0.00 | 0.55 | 0.55 | |||
| 20260904032110 | 0 | 0.0 | 0.0 | 0.00 | 0.55 | 0.55 | 1009.2 | ||
| 20260904031907 | 0 | 0.0 | 0.0 | 0.00 | 0.55 | 0.55 | 1009.2 | ||
| 20260904031709 | 0 | 0.0 | 0.0 | 0.00 | 0.55 | 0.55 | 1009.2 | ||
| 20260904031639 | 79 | 148 | 0.0 | 0.0 | 0.00 | 0.55 | 0.55 | 88 | 1009.2 |
| 20260904031437 | 79 | 148 | 0.0 | 0.0 | 0.00 | 0.55 | 0.55 | 88 | 1009.2 |
| 20260904031212 | 79 | 148 | 0.0 | 0.0 | 0.00 | 0.55 | 0.55 | 88 | 1009.2 |
| 20260904031011 | 79 | 148 | 0.0 | 0.0 | 0.00 | 0.55 | 0.55 | 88 | 1009.1 |
| 20260904030911 | 79 | 148 | 0.0 | 0.0 | 0.00 | 0.55 | 0.55 | 88 | 1009.2 |
| 20260904030811 | 79 | 148 | 0.0 | 0.0 | 0.00 | 0.55 | 0.55 | 88 | 1009.2 |
| 20260904030615 | 79 | 148 | 0.0 | 0.0 | 0.00 | 0.55 | 0.55 | 88 | 1009.2 |
| 20260904030412 | 79 | 141 | 0.0 | 0.0 | 0.00 | 0.55 | 0.55 | 88 | 1009.2 |
| 20260904030220 | 79 | 123 | 0.0 | 0.0 | 0.00 | 0.55 | 0.55 | 88 | 1009.2 |
| 20260904030213 | 79 | 123 | 0.0 | 0.0 | 0.00 | 0.55 | 0.55 | 88 | 1009.2 |
| 20260904025911 | 79 | 123 | 0.0 | 0.0 | 0.00 | 0.55 | 0.55 | 88 | 1009.2 |
| 20260904025812 | 79 | 123 | 0.0 | 0.0 | 0.00 | 0.55 | 0.55 | 88 | 1009.1 |
| 20260904025611 | 79 | 123 | 0.0 | 0.0 | 0.00 | 0.55 | 0.55 | 88 | 1009.2 |
| 20260904025413 | 79 | 120 | 0.0 | 0.0 | 0.00 | 0.55 | 0.55 | 88 | 1009.1 |
| 20260904025211 | 79 | 120 | 0.0 | 0.0 | 0.00 | 0.55 | 0.55 | 88 | 1009.1 |
| 20260904025027 | 79 | 120 | 0.0 | 0.0 | 0.00 | 0.55 | 0.55 | 88 | 1009.2 |
| 20260904024909 | 79 | 120 | 0.0 | 0.0 | 0.00 | 0.55 | 0.55 | 88 | 1009.1 |
| 20260904024811 | 79 | 120 | 0.0 | 0.0 | 0.00 | 0.55 | 0.55 | 88 | 1009.2 |
| 20260904024712 | 79 | 121 | 0.0 | 0.0 | 0.00 | 0.55 | 0.55 | 88 | 1009.1 |
| 20260904024412 | 79 | 114 | 0.0 | 0.0 | 0.00 | 0.55 | 0.55 | 87 | 1009.1 |
| 20260904024211 | 79 | 111 | 0.0 | 0.0 | 0.00 | 0.55 | 0.55 | 87 | 1009.1 |
| 20260904024111 | 79 | 111 | 0.0 | 0.0 | 0.00 | 0.55 | 0.55 | 87 | 1009.1 |
| 20260904023904 | 79 | 111 | 0.0 | 0.0 | 0.00 | 0.55 | 0.55 | 87 | 1009.0 |
| 20260904023811 | 79 | 113 | 0.0 | 0.0 | 0.00 | 0.55 | 0.55 | 87 | 1009.0 |
| 20260904023702 | 79 | 111 | 0.0 | 0.0 | 0.00 | 0.55 | 0.55 | 87 | 1009.0 |
| 20260904023405 | 79 | 110 | 0.0 | 0.0 | 0.00 | 0.55 | 0.55 | 87 | 1009.0 |
| 20260904023204 | 79 | 110 | 0.0 | 0.0 | 0.00 | 0.55 | 0.55 | 87 | 1009.0 |
| 20260904023004 | 79 | 109 | 0.0 | 0.0 | 0.00 | 0.55 | 0.55 | 87 | 1009.0 |
| 20260904022902 | 79 | 109 | 0.0 | 0.0 | 0.00 | 0.55 | 0.55 | 87 | 1009.0 |
| 20260904022803 | 0 | 107 | 0.0 | 0.0 | 0.00 | 0.55 | 0.55 | 1009.0 | |
| 20260904022709 | 0 | 0.0 | 0.0 | 0.00 | 0.00 | 0.00 | 1009.1 | ||
| 20260904022420 | 0 | 0.0 | 0.0 | 0.00 | 0.00 | 0.00 | 1009.0 | ||
| 20260904022132 | 0 | 0.0 | 0.0 | 0.00 | 0.55 | 0.55 | |||
| 20260904022107 | 0 | 0.0 | 0.0 | 0.00 | 0.55 | 0.55 | |||
| 20260904021814 | 0 | 0.0 | 0.0 | 0.00 | 0.55 | 0.55 | |||
| 20260904021606 | 0 | 0.0 | 0.0 | 0.00 | 0.55 | 0.55 | |||
| 20260904021335 | 0 | 0.0 | 0.0 | 0.00 | 0.55 | 0.55 | |||
| 20260904021136 | 0 | 0.0 | 0.0 | 0.00 | 0.55 | 0.55 | |||
| 20260904021104 | 0 | 0.0 | 0.0 | 0.00 | 0.55 | 0.55 | |||
| 20260904021034 | 0 | 0.0 | 0.0 | 0.00 | 0.55 | 0.55 | 1008.8 | ||
| 20260904020738 | 0 | 0.0 | 0.0 | 0.00 | 0.55 | 0.55 | 1008.8 | ||
| 20260904020617 | 80 | 134 | 0.0 | 0.0 | 0.00 | 0.55 | 0.55 | 85 | 1008.8 |
| 20260904020609 | 0 | 0.0 | 0.0 | 0.00 | 0.55 | 0.55 | 1008.8 | ||
| 20260904020306 | 80 | 134 | 0.0 | 0.0 | 0.00 | 0.55 | 0.55 | 85 | 1008.8 |
| 20260904020216 | 80 | 134 | 0.0 | 0.0 | 0.00 | 0.55 | 0.55 | 85 | 1008.8 |
| 20260904020114 | 80 | 134 | 0.0 | 0.0 | 0.00 | 0.55 | 0.55 | 85 | 1008.8 |
| 20260904015902 | 80 | 134 | 0.0 | 0.0 | 0.00 | 0.55 | 0.55 | 85 | 1008.8 |
| 20260904015703 | 80 | 134 | 0.0 | 0.0 | 0.00 | 0.55 | 0.55 | 85 | 1008.8 |
| 20260904015601 | 80 | 134 | 0.0 | 0.0 | 0.00 | 0.55 | 0.55 | 85 | 1008.8 |
| 20260904015503 | 80 | 131 | 0.0 | 0.0 | 0.00 | 0.55 | 0.55 | 85 | 1008.8 |
| 20260904015448 | 80 | 131 | 0.0 | 0.0 | 0.00 | 0.55 | 0.55 | 85 | 1008.9 |
| 20260904015358 | 80 | 42 | 0.0 | 0.0 | 0.00 | 0.55 | 0.55 | 84 | 1008.8 |
| 20260904015316 | 80 | 42 | 0.0 | 0.0 | 0.00 | 0.55 | 0.55 | 84 | 1008.8 |
| 20260904014904 | 80 | 44 | 0.0 | 0.0 | 0.00 | 0.55 | 0.55 | 84 | 1008.9 |
| 20260904014804 | 80 | 44 | 0.0 | 0.0 | 0.00 | 0.55 | 0.55 | 84 | 1008.9 |
| 20260904014607 | 80 | 44 | 0.0 | 0.0 | 0.00 | 0.55 | 0.55 | 84 | 1008.9 |
| 20260904014501 | 80 | 45 | 0.0 | 0.0 | 0.00 | 0.55 | 0.55 | 84 | 1008.8 |
| 20260904014359 | 80 | 44 | 0.0 | 0.0 | 0.00 | 0.55 | 0.55 | 84 | 1008.9 |
| 20260904014349 | 80 | 44 | 0.0 | 0.0 | 0.00 | 0.55 | 0.55 | 84 | 1008.9 |
| 20260904014313 | 80 | 44 | 0.0 | 0.0 | 0.00 | 0.55 | 0.55 | 84 | 1008.9 |
| 20260904014000 | 80 | 42 | 0.0 | 0.0 | 0.00 | 0.00 | 0.00 | 84 | 1008.9 |
| 20260904013658 | 0 | 44 | 0.0 | 0.0 | 0.00 | 0.00 | 0.00 | 1008.8 | |
| 20260904013559 | 0 | 44 | 0.0 | 0.0 | 0.00 | 0.00 | 0.00 | 1008.9 | |
| 20260904013500 | 0 | 44 | 0.0 | 0.0 | 0.00 | 0.00 | 0.00 | 1008.9 | |
| 20260904013441 | 0 | 44 | 0.0 | 0.0 | 0.00 | 0.00 | 0.00 | 1008.8 | |
| 20260904013323 | 0 | 0.0 | 0.0 | 0.00 | 0.00 | 0.00 | 1008.8 | ||
| 20260904012704 | 0 | 0.0 | 0.0 | 0.00 | 0.55 | 0.55 | |||
| 20260904012505 | 0 | 0.0 | 0.0 | 0.00 | 0.55 | 0.55 | |||
| 20260904012454 | 0 | 0.0 | 0.0 | 0.00 | 0.55 | 0.55 | |||
| 20260904012433 | 0 | 0.0 | 0.0 | 0.00 | 0.55 | 0.55 | |||
| 20260904012033 | 0 | 0.0 | 0.0 | 0.00 | 0.55 | 0.55 | |||
| 20260904011832 | 0 | 0.0 | 0.0 | 0.00 | 0.55 | 0.55 | |||
| 20260904011706 | 0 | 0.0 | 0.0 | 0.00 | 0.55 | 0.55 | 1008.6 | ||
| 20260904011632 | 0 | 0.0 | 0.0 | 0.00 | 0.55 | 0.55 | 1008.6 | ||
| 20260904011431 | 0 | 0.0 | 0.0 | 0.00 | 0.55 | 0.55 | 1008.6 | ||
| 20260904011303 | 82 | 42 | 0.0 | 0.0 | 0.00 | 0.55 | 0.55 | 81 | 1008.6 |
| 20260904011134 | 82 | 42 | 0.0 | 0.0 | 0.00 | 0.55 | 0.55 | 81 | 1008.6 |
| 20260904011007 | 82 | 42 | 0.0 | 0.0 | 0.00 | 0.55 | 0.55 | 81 | 1008.6 |
| 20260904010904 | 82 | 42 | 0.0 | 0.0 | 0.00 | 0.55 | 0.55 | 81 | 1008.5 |
| 20260904010631 | 82 | 42 | 0.0 | 0.0 | 0.00 | 0.55 | 0.55 | 81 | 1008.6 |
| 20260904010535 | 82 | 42 | 0.0 | 0.0 | 0.00 | 0.55 | 0.55 | 81 | 1008.5 |
| 20260904010411 | 82 | 42 | 0.0 | 0.0 | 0.00 | 0.55 | 0.55 | 81 | 1008.5 |
| 20260904010108 | 82 | 42 | 0.0 | 0.0 | 0.00 | 0.55 | 0.55 | 81 | 1008.5 |
| 20260904005928 | 82 | 35 | 0.0 | 0.0 | 0.00 | 0.55 | 0.55 | 81 | 1008.5 |
| 20260904005826 | 82 | 35 | 0.0 | 0.0 | 0.00 | 0.55 | 0.55 | 81 | 1008.5 |
| 20260904005607 | 82 | 37 | 0.0 | 0.0 | 0.00 | 0.55 | 0.55 | 81 | 1008.4 |
| 20260904005524 | 82 | 35 | 0.0 | 0.0 | 0.00 | 0.55 | 0.55 | 81 | 1008.5 |
| 20260904005424 | 83 | 32 | 0.0 | 0.0 | 0.00 | 0.55 | 0.55 | 80 | 1008.4 |
| 20260904005107 | 83 | 31 | 0.0 | 0.0 | 0.00 | 0.55 | 0.55 | 80 | 1008.5 |
| 20260904004922 | 83 | 32 | 0.0 | 0.0 | 0.00 | 0.55 | 0.55 | 80 | 1008.5 |
| 20260904004713 | 83 | 32 | 0.0 | 0.0 | 0.00 | 0.55 | 0.55 | 80 | 1008.4 |
| 20260904004606 | 83 | 31 | 0.0 | 0.0 | 0.00 | 0.55 | 0.55 | 80 | 1008.5 |
| 20260904004511 | 83 | 31 | 0.0 | 0.0 | 0.00 | 0.55 | 0.55 | 79 | 1008.5 |
| 20260904004433 | 83 | 31 | 0.0 | 0.0 | 0.00 | 0.55 | 0.55 | 79 | 1008.5 |
| 20260904004107 | 83 | 31 | 0.0 | 0.0 | 0.00 | 0.55 | 0.55 | 79 | 1008.4 |
| 20260904003924 | 83 | 31 | 0.0 | 0.0 | 0.00 | 0.55 | 0.55 | 78 | 1008.5 |
| 20260904003914 | 83 | 30 | 0.0 | 0.0 | 0.00 | 0.55 | 0.55 | 79 | 1008.5 |
| 20260904003839 | 83 | 30 | 0.0 | 0.0 | 0.00 | 0.55 | 0.55 | 78 | 1008.5 |
| 20260904003511 | 84 | 31 | 0.0 | 1.0 | 0.00 | 0.55 | 0.55 | 78 | 1008.5 |
| 20260904003312 | 84 | 0 | 0.0 | 1.0 | 0.00 | 0.55 | 0.55 | 78 | 1008.5 |
| 20260904003215 | 84 | 42 | 0.0 | 1.0 | 0.00 | 0.55 | 0.55 | 78 | 1008.5 |
| 20260904003111 | 84 | 42 | 0.0 | 1.0 | 0.00 | 0.55 | 0.55 | 78 | 1008.5 |
| 20260904002912 | 84 | 42 | 0.0 | 1.0 | 0.00 | 0.55 | 0.55 | 78 | 1008.4 |
| 20260904002806 | 84 | 48 | 0.0 | 1.0 | 0.00 | 0.55 | 0.55 | 77 | 1008.4 |
| 20260904002611 | 84 | 48 | 0.0 | 1.0 | 0.00 | 0.55 | 0.55 | 77 | 1008.4 |
| 20260904002509 | 84 | 47 | 0.0 | 0.0 | 0.00 | 0.55 | 0.55 | 77 | 1008.5 |
| 20260904002307 | 84 | 49 | 0.0 | 0.0 | 0.00 | 0.55 | 0.55 | 77 | 1008.4 |
| 20260904002115 | 85 | 48 | 0.0 | 0.0 | 0.00 | 0.55 | 0.55 | 77 | 1008.4 |
| 20260904002107 | 85 | 48 | 0.0 | 0.0 | 0.00 | 0.55 | 0.55 | 77 | 1008.5 |
| 20260904001906 | 85 | 48 | 0.0 | 0.0 | 0.00 | 0.55 | 0.55 | 76 | 1008.5 |
| 20260904001804 | 85 | 48 | 0.0 | 0.0 | 0.00 | 0.55 | 0.55 | 76 | 1008.4 |
| 20260904001607 | 85 | 48 | 0.0 | 0.0 | 0.00 | 0.55 | 0.55 | 76 | 1008.5 |
| 20260904001506 | 85 | 47 | 0.0 | 0.0 | 0.00 | 0.55 | 0.55 | 76 | 1008.5 |
| 20260904001404 | 85 | 51 | 0.0 | 0.0 | 0.00 | 0.55 | 0.55 | 76 | 1008.5 |
| 20260904001113 | 85 | 54 | 0.0 | 0.0 | 0.00 | 0.55 | 0.55 | 75 | 1008.4 |
| 20260904001104 | 85 | 56 | 0.0 | 0.0 | 0.00 | 0.55 | 0.55 | 75 | 1008.4 |
| 20260904000906 | 86 | 55 | 0.0 | 0.0 | 0.00 | 0.55 | 0.55 | 75 | 1008.5 |
| 20260904000708 | 86 | 54 | 0.0 | 0.0 | 0.00 | 0.55 | 0.55 | 74 | 1008.3 |
| 20260904000606 | 86 | 55 | 0.0 | 0.0 | 0.00 | 0.55 | 0.55 | 74 | 1008.4 |
| 20260904000432 | 86 | 109 | 0.0 | 0.0 | 0.00 | 0.55 | 0.55 | 74 | 1008.4 |
| 20260904000330 | 86 | 175 | 0.0 | 1.0 | 0.00 | 0.55 | 0.55 | 74 | 1008.4 |
| 20260904000111 | 86 | 176 | 0.0 | 3.0 | 0.00 | 0.55 | 0.55 | 74 | 1008.5 |
| 20260904000045 | 86 | 178 | 0.0 | 3.0 | 0.00 | 0.55 | 0.55 | 74 | 1008.5 |
| 20260903235832 | 86 | 182 | 0.0 | 3.0 | 0.00 | 0.55 | 0.55 | 73 | 1008.5 |
| 20260903235619 | 87 | 176 | 0.0 | 3.0 | 0.00 | 0.55 | 0.55 | 73 | 1008.5 |
| 20260903235606 | 87 | 178 | 0.0 | 3.0 | 0.00 | 0.55 | 0.55 | 73 | 1008.5 |
| 20260903235513 | 87 | 178 | 0.0 | 3.0 | 0.00 | 0.55 | 0.55 | 73 | 1008.5 |
| 20260903235214 | 87 | 176 | 0.0 | 3.0 | 0.00 | 0.55 | 0.55 | 72 | 1008.5 |
| 20260903235115 | 87 | 173 | 0.0 | 3.0 | 0.00 | 0.55 | 0.55 | 72 | 1008.5 |
| 20260903235104 | 87 | 178 | 0.0 | 3.0 | 0.00 | 0.55 | 0.55 | 72 | 1008.5 |
| 20260903234911 | 87 | 168 | 0.0 | 3.0 | 0.00 | 0.55 | 0.55 | 72 | 1008.6 |
| 20260903234857 | 87 | 165 | 0.0 | 3.0 | 0.00 | 0.55 | 0.55 | 72 | 1008.5 |
| 20260903234824 | 87 | 169 | 0.0 | 3.0 | 0.00 | 0.55 | 0.55 | 72 | 1008.5 |
| 20260903234412 | 87 | 166 | 0.0 | 4.0 | 0.00 | 0.55 | 0.55 | 72 | 1008.6 |
| 20260903234213 | 87 | 166 | 0.0 | 4.0 | 0.00 | 0.55 | 0.55 | 72 | 1008.5 |
| 20260903234117 | 87 | 165 | 0.0 | 4.0 | 0.00 | 0.55 | 0.55 | 72 | 1008.6 |
| 20260903234104 | 87 | 168 | 0.0 | 4.0 | 0.00 | 0.55 | 0.55 | 72 | 1008.6 |
| 20260903233920 | 87 | 166 | 0.0 | 5.0 | 0.00 | 0.55 | 0.55 | 71 | 1008.6 |
| 20260903233911 | 87 | 165 | 0.0 | 5.0 | 0.00 | 0.55 | 0.55 | 71 | 1008.6 |
| 20260903233855 | 87 | 166 | 0.0 | 4.0 | 0.00 | 0.55 | 0.55 | 71 | 1008.6 |
| 20260903233410 | 87 | 202 | 0.0 | 5.0 | 0.00 | 0.55 | 0.55 | 71 | 1008.7 |
| 20260903233210 | 87 | 165 | 0.0 | 5.0 | 0.00 | 0.55 | 0.55 | 71 | 1008.6 |
| 20260903233105 | 87 | 169 | 0.0 | 5.0 | 0.00 | 0.55 | 0.55 | 71 | 1008.6 |
| 20260903233009 | 87 | 166 | 0.0 | 5.0 | 0.00 | 0.55 | 0.55 | 70 | 1008.6 |
| 20260903232911 | 87 | 169 | 0.0 | 9.0 | 0.00 | 0.55 | 0.55 | 71 | 1008.5 |
| 20260903232856 | 87 | 164 | 0.0 | 9.0 | 0.00 | 0.55 | 0.55 | 71 | 1008.6 |
| 20260903232409 | 87 | 171 | 0.0 | 9.0 | 0.00 | 0.55 | 0.55 | 71 | 1008.5 |
| 20260903232306 | 87 | 171 | 0.0 | 9.0 | 0.00 | 0.55 | 0.55 | 71 | 1008.3 |
| 20260903232102 | 87 | 169 | 0.0 | 9.0 | 0.00 | 0.55 | 0.55 | 70 | 1008.5 |
| 20260903232007 | 87 | 168 | 0.0 | 9.0 | 0.00 | 0.55 | 0.55 | 70 | 1008.3 |
| 20260903231807 | 87 | 188 | 0.0 | 4.0 | 0.00 | 0.55 | 0.55 | 70 | 1008.3 |
| 20260903231713 | 87 | 188 | 0.0 | 4.0 | 0.00 | 0.55 | 0.55 | 70 | 1008.3 |
| 20260903231601 | 87 | 188 | 0.0 | 4.0 | 0.00 | 0.55 | 0.55 | 70 | 1008.3 |
| 20260903231407 | 87 | 188 | 0.0 | 6.0 | 0.00 | 0.55 | 0.55 | 70 | 1008.2 |
| 20260903231205 | 87 | 188 | 0.0 | 6.0 | 0.00 | 0.55 | 0.55 | 70 | 1008.2 |
| 20260903231107 | 87 | 165 | 0.0 | 6.0 | 0.00 | 0.55 | 0.55 | 70 | 1008.2 |
| 20260903231004 | 87 | 168 | 0.0 | 6.0 | 0.00 | 0.55 | 0.55 | 71 | 1008.2 |
| 20260903230922 | 87 | 158 | 0.0 | 6.0 | 0.00 | 0.55 | 0.55 | 70 | 1008.1 |
| 20260903230905 | 87 | 158 | 0.0 | 6.0 | 0.00 | 0.55 | 0.55 | 70 | 1008.1 |
| 20260903230849 | 87 | 159 | 0.0 | 6.0 | 0.00 | 0.55 | 0.55 | 70 | 1008.0 |
| 20260903230404 | 87 | 52 | 0.0 | 5.0 | 0.00 | 0.55 | 0.55 | 71 | 1008.1 |
| 20260903230300 | 87 | 161 | 0.0 | 5.0 | 0.00 | 0.55 | 0.55 | 70 | 1008.1 |
| 20260903230057 | 87 | 37 | 0.0 | 5.0 | 0.00 | 0.55 | 0.55 | 70 | 1008.1 |
| 20260903230002 | 87 | 165 | 0.0 | 5.0 | 0.00 | 0.55 | 0.55 | 71 | 1008.1 |
| 20260903225859 | 87 | 169 | 0.0 | 10.0 | 0.00 | 0.55 | 0.55 | 71 | 1007.6 |
| 20260903225845 | 87 | 154 | 0.0 | 10.0 | 0.00 | 0.55 | 0.55 | 70 | 1007.9 |
| 20260903225546 | 87 | 171 | 0.0 | 10.0 | 0.00 | 0.55 | 0.55 | 71 | 1007.6 |
| 20260903225347 | 87 | 169 | 0.0 | 10.0 | 0.00 | 0.55 | 0.55 | 70 | 1007.6 |
| 20260903225244 | 87 | 94 | 0.0 | 10.0 | 0.00 | 0.55 | 0.55 | 70 | 1007.8 |
| 20260903225055 | 87 | 166 | 0.0 | 10.0 | 0.00 | 0.55 | 0.55 | 70 | 1007.9 |
| 20260903224943 | 87 | 183 | 0.0 | 10.0 | 0.00 | 0.55 | 0.55 | 69 | 1007.9 |
| 20260903224933 | 87 | 173 | 0.0 | 10.0 | 0.00 | 0.55 | 0.55 | 70 | 1007.9 |
| 20260903224843 | 87 | 183 | 0.0 | 10.0 | 0.00 | 0.55 | 0.55 | 70 | 1007.9 |
| 20260903224541 | 87 | 183 | 0.0 | 10.0 | 0.00 | 0.55 | 0.55 | 70 | 1007.9 |
| 20260903224342 | 87 | 220 | 0.0 | 10.0 | 0.00 | 0.55 | 0.55 | 69 | 1007.8 |
| 20260903224144 | 87 | 173 | 0.0 | 9.0 | 0.00 | 0.55 | 0.55 | 70 | 1007.8 |
| 20260903224052 | 87 | 165 | 0.0 | 9.0 | 0.00 | 0.55 | 0.55 | 70 | 1007.8 |
| 20260903223947 | 87 | 175 | 0.0 | 9.0 | 0.00 | 0.55 | 0.55 | 69 | 1007.5 |
| 20260903223940 | 87 | 188 | 0.0 | 9.0 | 0.00 | 0.55 | 0.55 | 70 | 1007.6 |
| 20260903223847 | 87 | 173 | 0.0 | 9.0 | 0.00 | 0.55 | 0.55 | 70 | 1007.5 |
| 20260903223831 | 87 | 13 | 0.0 | 9.0 | 0.00 | 0.55 | 0.55 | 70 | 1007.5 |
| 20260903223338 | 87 | 171 | 0.0 | 9.0 | 0.00 | 0.55 | 0.55 | 70 | 1007.6 |
| 20260903223238 | 87 | 20 | 0.0 | 7.0 | 0.00 | 0.55 | 0.55 | 70 | 1007.8 |
| 20260903223052 | 87 | 35 | 0.0 | 7.0 | 0.00 | 0.55 | 0.55 | 70 | 1007.8 |
| 20260903222935 | 87 | 168 | 0.0 | 7.0 | 0.00 | 0.55 | 0.55 | 69 | 1007.9 |
| 20260903222732 | 87 | 172 | 0.0 | 7.0 | 0.00 | 0.55 | 0.55 | 69 | 1007.8 |
| 20260903222551 | 87 | 120 | 0.0 | 7.0 | 0.00 | 0.55 | 0.55 | 69 | 1007.8 |
| 20260903222532 | 87 | 165 | 0.0 | 7.0 | 0.00 | 0.55 | 0.55 | 69 | 1007.8 |
| 20260903222333 | 87 | 189 | 0.0 | 11.0 | 0.00 | 0.55 | 0.55 | 69 | 1007.8 |
| 20260903222225 | 87 | 179 | 0.0 | 11.0 | 0.00 | 0.55 | 0.55 | 69 | 1007.8 |
| 20260903222048 | 87 | 178 | 0.0 | 11.0 | 0.00 | 0.55 | 0.55 | 69 | 1007.8 |
| 20260903221931 | 87 | 172 | 0.0 | 11.0 | 0.00 | 0.55 | 0.55 | 69 | 1007.9 |
| 20260903221826 | 87 | 166 | 0.0 | 11.0 | 0.00 | 0.55 | 0.55 | 69 | 1007.9 |
| 20260903221535 | 87 | 171 | 0.0 | 11.0 | 0.00 | 0.55 | 0.55 | 68 | 1007.9 |
| 20260903221531 | 87 | 169 | 0.0 | 11.0 | 0.00 | 0.55 | 0.55 | 68 | 1007.9 |
| 20260903221330 | 87 | 186 | 0.0 | 11.0 | 0.00 | 0.55 | 0.55 | 68 | 1008.0 |
| 20260903221132 | 87 | 178 | 0.0 | 7.0 | 0.00 | 0.55 | 0.55 | 68 | 1008.0 |
| 20260903221030 | 87 | 178 | 0.0 | 7.0 | 0.00 | 0.55 | 0.55 | 68 | 1008.1 |
| 20260903220932 | 87 | 178 | 0.0 | 7.0 | 0.00 | 0.55 | 0.55 | 68 | 1008.1 |
| 20260903220815 | 88 | 180 | 0.0 | 7.0 | 0.00 | 0.55 | 0.55 | 67 | 1008.0 |
| 20260903220520 | 88 | 165 | 0.0 | 6.0 | 0.00 | 0.55 | 0.55 | 69 | 1008.1 |
| 20260903220515 | 88 | 166 | 0.0 | 6.0 | 0.00 | 0.55 | 0.55 | 69 | 1008.1 |
| 20260903220411 | 88 | 202 | 0.0 | 6.0 | 0.00 | 0.55 | 0.55 | 67 | 1008.0 |
| 20260903220111 | 88 | 193 | 0.0 | 6.0 | 0.00 | 0.55 | 0.55 | 68 | 1008.0 |
| 20260903220012 | 88 | 189 | 0.0 | 6.0 | 0.00 | 0.55 | 0.55 | 68 | 1008.0 |
| 20260903215912 | 88 | 172 | 0.0 | 5.0 | 0.00 | 0.55 | 0.55 | 68 | 1008.0 |
| 20260903215711 | 88 | 1 | 0.0 | 5.0 | 0.00 | 0.55 | 0.55 | 69 | 1008.0 |
| 20260903215614 | 88 | 216 | 0.0 | 9.0 | 0.00 | 0.55 | 0.55 | 68 | 1008.1 |
| 20260903215515 | 88 | 216 | 0.0 | 9.0 | 0.00 | 0.55 | 0.55 | 68 | 1008.1 |
| 20260903215356 | 87 | 245 | 0.0 | 9.0 | 0.00 | 0.55 | 0.55 | 68 | 1008.1 |
| 20260903215324 | 87 | 128 | 0.0 | 9.0 | 0.00 | 0.55 | 0.55 | 69 | 1008.1 |
| 20260903215319 | 88 | 176 | 0.0 | 9.0 | 0.00 | 0.55 | 0.55 | 68 | 1008.1 |
| 20260903214913 | 87 | 178 | 0.0 | 10.0 | 0.00 | 0.55 | 0.55 | 69 | 1008.2 |
| 20260903214712 | 87 | 169 | 0.0 | 10.0 | 0.00 | 0.55 | 0.55 | 68 | 1008.4 |
| 20260903214512 | 87 | 168 | 0.0 | 10.0 | 0.00 | 0.55 | 0.55 | 68 | 1008.4 |
| 20260903214311 | 87 | 228 | 0.0 | 11.0 | 0.00 | 0.55 | 0.55 | 68 | 1008.4 |
| 20260903214213 | 87 | 159 | 0.0 | 11.0 | 0.00 | 0.55 | 0.55 | 67 | 1008.2 |
| 20260903214011 | 87 | 140 | 0.0 | 11.0 | 0.00 | 0.55 | 0.55 | 68 | 1008.2 |
| 20260903213912 | 87 | 165 | 0.0 | 11.0 | 0.00 | 0.55 | 0.55 | 68 | 1008.3 |
| 20260903213810 | 88 | 37 | 0.0 | 11.0 | 0.00 | 0.55 | 0.55 | 67 | 1008.3 |
| 20260903213514 | 88 | 145 | 0.0 | 11.0 | 0.00 | 0.55 | 0.55 | 67 | 1008.4 |
| 20260903213311 | 88 | 0 | 0.0 | 6.0 | 0.00 | 0.55 | 0.55 | 67 | 1008.5 |
| 20260903213111 | 88 | 200 | 0.0 | 6.0 | 0.00 | 0.55 | 0.55 | 69 | 1008.5 |
| 20260903213012 | 88 | 55 | 0.0 | 6.0 | 0.00 | 0.55 | 0.55 | 69 | 1008.5 |
| 20260903212911 | 87 | 175 | 0.0 | 7.0 | 0.00 | 0.55 | 0.55 | 69 | 1008.5 |
| 20260903212814 | 87 | 175 | 0.0 | 7.0 | 0.00 | 0.55 | 0.55 | 70 | 1008.3 |
| 20260903212511 | 87 | 186 | 0.0 | 7.0 | 0.00 | 0.55 | 0.55 | 69 | 1008.5 |
| 20260903212413 | 87 | 165 | 0.0 | 7.0 | 0.00 | 0.55 | 0.55 | 69 | 1008.5 |
| 20260903212111 | 87 | 21 | 0.0 | 10.0 | 0.00 | 0.55 | 0.55 | 69 | 1008.4 |
| 20260903212013 | 87 | 179 | 0.0 | 10.0 | 0.00 | 0.55 | 0.55 | 68 | 1008.4 |
| 20260903211912 | 87 | 171 | 0.0 | 10.0 | 0.00 | 0.55 | 0.55 | 69 | 1008.4 |
| 20260903211711 | 86 | 155 | 0.0 | 10.0 | 0.00 | 0.55 | 0.55 | 69 | 1008.4 |
| 20260903211512 | 87 | 141 | 0.0 | 10.0 | 0.00 | 0.55 | 0.55 | 68 | 1008.5 |
| 20260903211313 | 87 | 144 | 0.0 | 10.0 | 0.00 | 0.55 | 0.55 | 68 | 1008.5 |
| 20260903211210 | 87 | 176 | 0.0 | 10.0 | 0.00 | 0.55 | 0.55 | 67 | 1008.4 |
| 20260903211004 | 87 | 182 | 0.0 | 10.0 | 0.00 | 0.55 | 0.55 | 67 | 1008.5 |
| 20260903210912 | 88 | 154 | 0.0 | 10.0 | 0.00 | 0.55 | 0.55 | 66 | 1008.4 |
| 20260903210711 | 88 | 162 | 0.0 | 7.0 | 0.00 | 0.55 | 0.55 | 66 | 1008.4 |
| 20260903210528 | 89 | 200 | 0.0 | 7.0 | 0.00 | 0.55 | 0.55 | 69 | 1008.3 |
| 20260903210503 | 89 | 157 | 0.0 | 7.0 | 0.00 | 0.55 | 0.55 | 69 | 1008.3 |
| 20260903210341 | 88 | 173 | 0.0 | 7.0 | 0.00 | 0.55 | 0.55 | 68 | 1008.3 |
| 20260903210312 | 88 | 118 | 0.0 | 7.0 | 0.00 | 0.55 | 0.55 | 68 | 1008.3 |
| 20260903210254 | 88 | 173 | 0.0 | 7.0 | 0.00 | 0.55 | 0.55 | 68 | 1008.4 |
| 20260903205911 | 88 | 161 | 0.0 | 7.0 | 0.00 | 0.55 | 0.55 | 69 | 1008.4 |
| 20260903205814 | 87 | 165 | 0.0 | 5.0 | 0.00 | 0.55 | 0.55 | 68 | 1008.4 |
| 20260903205508 | 87 | 183 | 0.0 | 5.0 | 0.00 | 0.55 | 0.55 | 70 | 1008.4 |
| 20260903205314 | 86 | 166 | 0.0 | 0.0 | 0.00 | 0.55 | 0.55 | 70 | 1008.7 |
| 20260903205306 | 87 | 148 | 0.0 | 3.0 | 0.00 | 0.55 | 0.55 | 69 | 1008.5 |
| 20260903205238 | 86 | 175 | 0.0 | 0.0 | 0.00 | 0.55 | 0.55 | 69 | 1008.6 |
| 20260903204902 | 86 | 161 | 0.0 | 0.0 | 0.00 | 0.55 | 0.55 | 70 | 1008.7 |
| 20260903204759 | 86 | 162 | 0.0 | 0.0 | 0.00 | 0.55 | 0.55 | 71 | 1008.7 |
| 20260903204511 | 86 | 186 | 0.0 | 2.0 | 0.00 | 0.55 | 0.55 | 72 | 1008.9 |
| 20260903204456 | 86 | 158 | 0.0 | 2.0 | 0.00 | 0.55 | 0.55 | 72 | 1008.9 |
| 20260903204400 | 85 | 144 | 0.0 | 2.0 | 0.00 | 0.55 | 0.55 | 71 | 1008.8 |
| 20260903204310 | 85 | 195 | 0.0 | 2.0 | 0.00 | 0.55 | 0.55 | 71 | 1008.9 |
| 20260903204239 | 85 | 192 | 0.0 | 2.0 | 0.00 | 0.55 | 0.55 | 71 | 1008.8 |
| 20260903203906 | 85 | 137 | 0.0 | 2.0 | 0.00 | 0.55 | 0.55 | 70 | 1008.8 |
| 20260903203652 | 85 | 180 | 0.0 | 0.0 | 0.00 | 0.55 | 0.55 | 71 | 1008.9 |
| 20260903203500 | 85 | 196 | 0.0 | 0.0 | 0.00 | 0.55 | 0.55 | 72 | 1008.8 |
| 20260903203108 | 0 | 0.0 | 0.0 | 0.00 | 0.55 | 0.55 |